GFSWCAN_prec_snow_270.txt.gz
Snowfall_Accumulation
0.0 0.0 0.0 0.0 0.0 0.0 0.0 0.0 0.0 0.0 0.0 0.0 0.0 0.0 0.0 0.0 0.0 0.0 0.0 0.0 4.4 39.2 4.7 0.0 0.0 0.2 2.7 2.1 10.0 4.5 14.6 10.4 16.3 19.2 18.8 15.3 16.5 10.6 8.1 3.0 2.9 5.2 18.3 19.0 17.8 23.9 10.3 0.0 1.0 4.8 3.0 5.5 7.3 8.5
0.0 0.0 0.0 0.0 0.0 0.0 0.0 0.0 0.0 0.0 0.0 0.0 0.0 0.0 0.0 0.0 0.0 0.0 6.2 0.0 0.0 13.7 9.7 0.0 0.0 0.0 0.0 0.0 1.8 3.8 6.4 8.7 11.8 16.1 13.8 10.5 10.4 7.2 9.0 11.3 1.7 6.8 6.2 12.8 12.9 10.0 2.4 0.8 1.3 1.8 1.3 4.4 6.7 6.8
0.0 0.0 0.0 0.0 0.0 0.0 0.0 0.0 0.0 0.0 0.0 0.0 0.0 0.0 0.0 0.0 0.0 0.0 6.1 0.0 0.0 30.8 10.4 0.8 0.2 0.0 0.0 0.0 0.0 9.5 1.8 0.7 3.6 1.2 13.4 12.5 12.1 2.0 8.7 6.2 6.3 5.8 2.5 6.0 5.9 5.6 1.8 1.1 1.1 2.1 3.1 5.3 5.0 4.7
0.0 0.0 0.0 0.0 0.0 0.0 0.0 0.0 0.0 0.0 0.0 0.0 0.0 0.0 0.0 0.0 0.0 0.0 4.1 0.0 0.2 9.1 33.6 12.5 0.0 0.0 0.0 0.0 0.0 0.0 0.0 0.0 0.3 1.6 20.2 16.8 14.7 3.0 9.9 7.2 6.9 10.0 5.2 4.9 10.3 13.9 2.1 3.5 5.6 4.5 4.7 4.5 3.9 4.1
0.0 0.0 0.0 0.0 0.0 0.0 0.0 0.0 0.0 0.0 0.0 0.0 0.0 0.0 0.0 0.0 0.0 0.0 0.0 0.0 0.0 4.4 22.3 14.6 0.0 0.0 0.0 0.0 0.0 0.0 0.0 1.8 9.4 16.7 19.3 12.4 3.8 11.1 11.6 7.2 5.0 6.4 8.2 10.3 11.3 8.2 9.3 7.0 5.9 4.8 3.5 3.2 2.5 1.5
0.0 0.0 0.0 0.0 0.0 0.0 0.0 0.0 0.0 0.0 0.0 0.0 0.0 0.0 0.0 0.0 0.0 0.0 63.1 6.3 0.0 0.0 25.5 23.5 4.2 1.5 0.0 0.0 0.0 0.0 0.0 0.7 8.2 15.8 11.3 3.1 0.0 7.3 22.4 9.7 5.3 7.3 9.9 8.5 8.1 8.0 6.4 5.1 3.9 2.8 2.2 2.2 1.5 0.9
0.0 0.0 0.0 0.0 0.0 0.0 0.0 0.0 0.0 0.0 0.0 0.0 0.0 0.0 0.0 0.0 0.0 25.4 21.2 0.4 0.0 0.0 25.9 20.4 12.2 6.8 1.5 0.0 0.0 3.2 2.5 12.8 18.4 20.9 14.0 5.0 1.8 10.5 20.8 10.6 7.1 7.6 8.0 6.4 4.6 3.5 3.1 3.1 2.5 1.4 0.8 0.7 0.5 0.1
0.0 0.0 0.0 0.0 0.0 0.0 0.0 0.0 0.0 0.0 0.0 0.0 0.0 0.0 0.0 0.0 0.0 11.1 0.0 0.0 0.0 7.3 11.9 24.2 18.8 20.6 0.0 9.2 14.1 3.7 9.9 11.8 14.2 13.2 11.2 6.1 7.4 12.6 19.6 5.8 4.1 3.6 3.9 2.8 1.9 0.9 0.5 0.2 0.0 0.0 0.0 0.0 0.0 0.0
0.0 0.0 0.0 0.0 0.0 0.0 0.0 0.0 0.0 0.0 0.0 0.0 0.0 0.0 0.0 14.4 30.2 0.2 0.0 0.0 0.0 9.6 22.1 7.7 11.2 25.5 6.7 8.3 7.7 7.8 6.5 21.9 5.8 14.2 7.9 7.6 11.8 14.5 9.6 3.5 2.3 1.2 1.8 1.3 0.0 0.0 0.0 0.0 0.0 0.0 0.2 0.2 0.3 0.9
0.0 0.0 0.0 0.0 0.0 0.0 0.0 0.0 0.0 0.0 0.0 0.0 3.4 48.6 89.8 19.1 0.0 0.0 1.7 32.7 34.0 22.0 16.2 11.4 2.3 12.5 4.9 10.4 13.3 13.7 8.3 10.9 13.3 7.0 2.3 12.5 7.1 3.2 2.5 1.4 0.8 0.4 1.1 0.5 0.2 0.1 0.1 0.1 0.3 0.3 0.6 0.9 2.4 2.2
0.0 0.0 0.0 0.0 0.0 0.0 0.0 0.0 0.0 0.0 0.0 11.3 45.6 44.7 0.2 0.0 1.6 24.9 49.3 37.0 24.3 19.7 6.8 5.7 3.7 11.0 2.1 16.1 12.2 8.8 17.7 7.7 12.0 6.8 5.6 8.9 6.1 6.9 1.3 0.6 0.5 0.6 0.0 0.2 0.4 0.5 0.3 0.9 0.9 1.3 2.9 2.9 3.8 4.0
0.0 0.0 0.0 0.0 0.0 0.0 0.0 0.0 0.0 7.8 11.7 0.4 0.0 0.0 3.2 26.9 27.0 31.8 26.2 19.0 8.7 8.3 3.4 3.2 2.9 3.2 3.0 3.9 9.8 9.1 8.6 14.1 19.9 7.7 12.8 9.1 12.1 4.2 0.2 1.2 1.4 0.7 0.9 1.5 1.7 3.9 2.0 2.0 1.7 2.4 2.8 2.6 3.9 3.3
0.0 0.0 0.0 0.0 0.0 0.0 0.0 0.0 0.0 0.0 0.0 2.8 9.1 16.5 19.1 25.5 23.3 16.5 14.6 10.9 8.9 4.2 3.0 1.2 6.3 3.5 4.8 4.4 15.9 8.4 15.2 15.4 9.4 16.3 8.8 9.0 6.7 3.5 1.8 1.7 2.2 2.5 3.2 4.3 4.2 3.3 3.9 2.8 2.9 1.8 3.6 6.0 7.7 9.6
0.0 0.0 0.0 0.0 0.0 0.0 0.0 0.0 0.0 0.0 4.7 15.3 15.3 17.5 10.1 11.4 10.0 9.0 9.2 8.2 5.5 3.0 3.5 3.0 4.4 11.7 9.1 11.3 15.0 16.8 16.6 11.2 13.3 10.9 8.7 8.3 6.1 6.8 5.4 4.5 2.9 3.1 3.5 2.5 3.4 3.9 6.8 7.0 8.6 9.9 10.2 12.8 13.1 12.7
0.0 0.0 0.0 0.0 0.0 0.0 0.0 0.0 0.0 0.0 10.9 15.5 9.3 7.2 7.9 8.7 6.3 6.7 5.9 4.9 3.9 4.5 4.6 5.9 7.1 9.9 11.5 13.8 11.3 9.2 9.9 8.2 6.5 14.4 13.1 10.7 7.8 7.1 6.4 6.3 6.1 6.3 6.5 6.7 7.9 8.5 10.9 11.8 10.1 11.6 11.6 11.4 12.1 11.6
0.0 0.0 0.0 0.0 0.0 0.0 0.0 0.0 1.8 4.9 10.2 7.9 9.5 10.7 7.4 7.5 9.2 7.6 5.7 6.3 4.6 6.3 7.7 9.3 13.8 16.1 16.0 10.4 6.7 5.4 4.3 7.4 14.7 11.0 9.4 8.8 8.5 9.2 9.5 8.5 8.7 8.3 7.9 8.0 8.4 8.0 8.1 8.8 9.6 11.2 9.4 8.8 11.4 12.7
0.0 1.8 0.0 0.0 0.0 0.0 0.0 11.3 14.4 15.0 9.3 6.4 12.1 13.6 10.6 8.7 14.5 12.2 9.5 8.4 5.2 5.3 11.2 11.1 10.6 10.2 8.2 7.3 6.6 5.6 9.1 10.9 9.2 9.1 8.9 8.6 8.6 9.8 10.2 10.0 9.7 7.2 6.5 6.7 6.7 6.6 6.7 7.2 6.4 5.4 6.0 8.7 8.4 9.1
0.9 0.0 0.0 0.0 0.0 0.0 15.4 9.9 10.1 8.0 7.2 10.9 13.7 14.0 7.9 9.4 10.4 9.2 8.3 4.8 2.5 5.0 5.0 9.6 5.5 7.0 9.0 7.9 9.6 11.4 11.6 11.0 10.4 9.6 9.4 8.9 8.6 8.5 7.9 7.6 7.7 6.7 6.2 5.6 4.6 4.3 4.0 3.5 2.7 3.4 3.4 4.2 4.2 5.6
0.4 0.0 0.0 0.0 0.0 8.8 14.9 10.8 3.1 7.7 12.4 9.6 11.2 5.8 4.5 6.7 6.5 4.9 4.9 2.7 1.3 1.9 2.8 8.5 8.0 7.2 9.4 10.1 9.9 9.4 9.2 8.2 9.1 8.5 7.6 7.4 6.7 6.8 6.2 5.7 6.5 6.8 5.8 4.7 3.0 2.4 2.1 1.6 1.6 1.6 1.6 1.3 2.1 2.5
0.1 0.1 0.0 0.1 0.6 7.3 5.9 7.4 0.4 7.4 11.7 10.4 4.9 3.2 2.7 4.9 2.9 2.3 2.0 3.7 4.0 5.4 9.7 7.6 11.9 11.8 10.5 8.5 6.6 6.7 6.8 6.1 4.9 3.9 5.7 6.4 6.1 4.4 5.1 4.3 4.2 4.1 4.3 3.1 2.3 1.6 1.4 1.3 1.5 1.4 1.3 1.3 1.5 1.5
1.4 0.2 0.7 1.1 7.0 7.7 5.0 5.5 3.1 2.9 4.9 3.2 5.5 4.4 6.6 3.9 8.2 9.4 8.5 5.1 12.0 10.1 9.4 8.8 9.6 9.5 6.6 5.7 4.2 3.6 4.4 3.8 3.9 2.8 3.2 4.9 4.8 3.0 3.1 3.3 2.8 2.6 2.4 3.0 2.6 2.6 1.9 2.0 1.7 1.3 1.0 1.1 1.3 1.2
14.2 1.4 9.4 4.5 6.2 7.4 3.7 0.5 3.1 2.2 3.4 4.3 2.0 3.3 6.8 8.3 8.2 8.9 7.1 5.1 10.3 9.9 8.7 6.1 5.1 3.6 2.9 2.6 2.6 1.7 2.6 2.0 2.7 3.6 4.3 3.4 4.0 3.7 4.0 4.1 3.7 3.2 3.0 3.1 2.6 2.5 2.1 1.6 0.8 0.6 0.6 1.1 0.9 0.8
2.6 5.0 9.8 7.0 9.7 7.6 3.5 1.1 1.5 0.4 2.2 2.3 2.0 2.8 3.2 3.3 5.3 3.6 6.6 7.6 11.6 10.9 7.1 3.5 2.7 1.8 1.9 2.3 1.3 1.3 1.2 0.8 1.4 2.2 2.5 2.8 2.8 2.9 2.7 2.8 2.9 2.5 2.4 2.2 1.3 0.9 0.7 0.4 0.3 0.3 0.6 0.8 1.1 1.7
5.1 10.2 8.5 5.3 3.8 5.2 2.6 2.4 1.7 1.5 1.3 1.6 2.5 3.1 2.5 2.9 4.8 7.7 8.1 7.6 11.7 6.6 3.6 4.5 3.5 2.8 2.5 2.5 2.5 2.6 2.8 1.9 2.0 2.2 2.7 2.4 2.6 2.9 1.7 1.4 1.1 0.8 0.7 0.2 0.2 0.3 0.4 0.9 0.8 1.1 0.9 1.2 1.2 1.2
10.4 11.5 9.0 5.0 2.1 2.2 1.3 1.7 2.5 2.6 2.1 0.7 1.7 2.2 2.8 3.2 6.6 5.8 5.2 10.4 10.4 7.8 6.6 4.5 4.3 4.6 4.8 5.4 5.4 5.1 2.8 1.6 1.6 2.0 2.1 1.2 1.6 1.3 1.7 1.6 1.3 1.2 0.7 1.0 1.4 0.8 0.9 0.9 1.4 1.6 1.9 1.8 1.5 2.0
8.6 3.1 3.1 3.4 2.5 2.7 2.0 1.7 1.7 1.3 1.3 1.7 3.3 1.6 2.0 5.9 6.5 7.8 10.1 13.9 10.4 8.8 7.7 6.6 6.1 4.9 5.4 4.2 5.7 4.8 3.9 1.2 0.7 1.5 1.2 0.3 0.6 2.0 2.2 2.5 3.1 2.9 2.0 1.4 1.5 1.7 2.3 1.9 2.3 2.9 3.1 2.2 2.4 1.9
6.1 4.9 2.5 1.9 3.6 4.5 6.0 5.4 4.8 4.7 4.9 5.6 3.9 4.1 6.1 9.4 8.9 11.7 11.0 10.1 9.8 9.4 7.4 5.3 3.7 4.8 4.7 3.9 3.6 3.0 1.4 1.4 2.1 2.5 1.6 1.7 1.5 1.2 2.2 3.1 3.3 2.7 1.2 1.8 2.6 2.8 3.2 3.9 3.8 3.4 3.4 3.6 2.4 2.0
4.2 2.5 3.8 3.2 4.0 5.6 6.3 5.0 6.1 8.1 7.3 5.3 4.4 5.8 6.4 7.6 10.7 10.9 9.7 10.7 9.1 6.0 6.8 7.4 5.8 4.2 5.9 6.7 5.6 4.9 4.9 3.8 3.9 3.4 3.5 4.8 3.0 1.9 1.7 2.3 1.7 1.8 0.8 1.5 2.8 3.6 4.9 4.6 5.0 4.1 4.1 4.5 4.0 3.6
3.1 1.3 1.9 2.1 1.4 5.0 5.4 5.3 6.5 5.7 3.8 4.7 7.2 7.7 6.2 5.9 10.5 9.9 10.0 8.2 7.7 5.9 7.6 8.1 10.4 7.1 6.0 8.8 9.6 8.7 8.3 8.7 7.5 6.6 5.0 5.0 4.7 3.7 2.0 1.7 3.3 3.1 2.2 2.5 3.4 3.8 4.4 4.9 5.0 5.1 4.8 6.0 4.7 5.2
0.9 0.4 1.0 0.3 0.6 4.4 7.2 4.4 4.8 4.5 2.8 4.1 3.9 3.3 4.0 9.6 14.8 9.3 7.1 6.0 6.4 7.3 7.8 7.1 7.1 6.2 7.4 7.5 10.1 10.0 9.8 11.7 12.1 9.9 7.5 5.5 4.4 2.7 2.4 2.3 2.2 2.6 1.6 2.7 3.0 4.4 4.8 6.3 7.2 7.7 7.5 7.8 8.7 8.8
1.4 1.7 1.5 0.8 2.3 5.0 3.5 1.8 2.5 3.5 4.7 6.5 5.3 2.6 4.2 8.5 9.0 6.5 6.1 6.8 5.0 3.8 3.4 4.5 4.7 4.7 6.3 7.5 8.6 8.5 10.1 12.3 14.1 13.2 12.2 9.8 7.1 5.5 4.0 3.4 3.0 3.0 4.4 4.7 4.3 3.8 4.9 5.9 6.1 6.5 6.5 6.2 6.2 5.5
2.5 3.0 2.6 2.2 4.6 3.7 2.0 2.3 4.1 5.9 7.1 7.8 9.2 7.8 7.6 4.8 4.1 5.9 6.2 5.6 4.2 3.6 3.5 3.6 5.0 6.3 6.6 8.4 9.0 9.4 9.5 10.6 11.5 12.1 14.2 12.2 9.8 7.8 5.9 4.9 4.5 4.7 6.4 5.8 5.0 5.3 5.3 5.3 5.7 5.9 6.3 6.2 6.0 6.8
2.8 1.4 1.7 1.9 2.4 1.7 1.7 2.1 4.3 5.5 6.0 6.6 8.7 7.6 5.9 3.5 5.1 7.1 5.3 4.3 5.7 5.2 4.5 4.3 4.5 5.9 6.5 5.8 5.6 5.9 6.0 6.9 7.6 7.9 9.7 10.1 9.9 9.2 8.2 6.9 5.9 5.8 5.9 6.2 5.3 5.0 5.4 5.0 5.4 5.1 5.9 5.6 5.1 5.6

GFSWCAN_prec_snow_273.txt.gz
Snowfall_Accumulation
0.0 0.0 0.0 0.0 0.0 0.0 0.0 0.0 0.0 0.0 0.0 0.0 0.0 0.0 0.0 0.0 0.0 0.0 0.0 0.0 4.4 40.1 4.7 0.0 0.0 0.3 2.7 2.1 10.0 4.5 14.6 10.4 16.3 19.2 18.8 15.3 16.5 10.6 8.1 3.0 2.9 5.2 18.3 19.0 17.8 23.9 10.3 0.0 1.0 4.8 3.0 5.5 7.3 8.5
0.0 0.0 0.0 0.0 0.0 0.0 0.0 0.0 0.0 0.0 0.0 0.0 0.0 0.0 0.0 0.0 0.0 0.0 6.3 0.0 0.0 14.3 10.0 0.0 0.0 0.0 0.0 0.0 1.8 3.8 6.4 8.7 11.8 16.1 13.8 10.5 10.4 7.2 9.0 11.3 1.7 6.8 6.2 12.8 12.9 10.0 2.4 0.8 1.3 1.8 1.3 4.4 6.7 6.8
0.0 0.0 0.0 0.0 0.0 0.0 0.0 0.0 0.0 0.0 0.0 0.0 0.0 0.0 0.0 0.0 0.0 0.0 6.1 0.0 0.0 31.2 10.6 0.8 0.2 0.0 0.0 0.0 0.0 9.6 1.8 0.7 3.6 1.2 13.4 12.5 12.1 2.0 8.7 6.2 6.3 5.8 2.5 6.0 5.9 5.6 1.8 1.1 1.1 2.1 3.1 5.3 5.0 4.7
0.0 0.0 0.0 0.0 0.0 0.0 0.0 0.0 0.0 0.0 0.0 0.0 0.0 0.0 0.0 0.0 0.0 0.0 4.1 0.0 0.3 9.4 34.0 12.5 0.0 0.0 0.0 0.0 0.0 0.0 0.0 0.0 0.3 1.6 20.2 16.8 14.7 3.0 9.9 7.2 6.9 10.0 5.2 4.9 10.3 13.9 2.1 3.5 5.6 4.5 4.7 4.5 3.9 4.1
0.0 0.0 0.0 0.0 0.0 0.0 0.0 0.0 0.0 0.0 0.0 0.0 0.0 0.0 0.0 0.0 0.0 0.0 0.0 0.0 0.0 4.4 22.3 14.6 0.0 0.0 0.0 0.0 0.0 0.0 0.0 1.8 9.4 16.7 19.3 12.4 3.8 11.1 11.6 7.2 5.0 6.4 8.2 10.3 11.3 8.2 9.3 7.0 5.9 4.8 3.5 3.2 2.5 1.5
0.0 0.0 0.0 0.0 0.0 0.0 0.0 0.0 0.0 0.0 0.0 0.0 0.0 0.0 0.0 0.0 0.0 0.0 64.7 6.3 0.0 0.0 25.5 23.5 4.2 1.5 0.0 0.0 0.0 0.0 0.0 0.7 8.2 16.9 11.5 3.1 0.0 7.3 22.4 9.7 5.3 7.3 9.9 8.5 8.1 8.0 6.4 5.1 3.9 2.8 2.2 2.2 1.5 0.9
0.0 0.0 0.0 0.0 0.0 0.0 0.0 0.0 0.0 0.0 0.0 0.0 0.0 0.0 0.0 0.0 0.0 27.0 21.7 0.4 0.0 0.0 26.3 20.5 12.2 6.8 1.5 0.0 0.0 3.2 2.5 12.8 18.4 23.0 15.0 5.1 1.8 10.5 20.8 10.6 7.1 7.6 8.0 6.4 4.6 3.5 3.1 3.1 2.5 1.4 0.8 0.7 0.5 0.1
0.0 0.0 0.0 0.0 0.0 0.0 0.0 0.0 0.0 0.0 0.0 0.0 0.0 0.0 0.0 0.0 0.0 12.0 0.0 0.0 0.0 7.3 12.1 24.2 18.8 20.6 0.0 9.2 14.1 3.7 9.9 11.8 14.2 13.2 12.4 6.5 7.4 12.6 19.6 5.8 4.1 3.6 3.9 2.8 1.9 0.9 0.5 0.2 0.0 0.0 0.0 0.0 0.0 0.0
0.0 0.0 0.0 0.0 0.0 0.0 0.0 0.0 0.0 0.0 0.0 0.0 0.0 0.0 0.0 14.4 33.4 1.0 0.0 0.0 0.0 9.6 22.1 7.7 11.2 25.5 6.7 8.7 7.7 7.8 6.5 22.7 5.8 15.5 9.0 8.3 12.6 14.8 9.6 3.5 2.3 1.2 1.8 1.3 0.0 0.0 0.0 0.0 0.0 0.0 0.2 0.2 0.3 0.9
0.0 0.0 0.0 0.0 0.0 0.0 0.0 0.0 0.0 0.0 0.0 0.0 3.4 53.5 95.2 22.1 0.0 0.0 1.7 34.8 35.2 23.0 16.5 11.4 2.3 12.5 4.9 11.1 13.8 14.2 8.3 11.8 14.7 7.9 2.3 13.1 7.8 3.2 2.5 1.4 0.8 0.4 1.1 0.5 0.2 0.1 0.1 0.1 0.3 0.3 0.6 0.9 2.4 2.2
0.0 0.0 0.0 0.0 0.0 0.0 0.0 0.0 0.0 0.0 0.0 11.3 50.4 47.5 1.4 0.0 2.2 26.2 50.8 37.9 24.6 20.2 7.8 5.7 3.7 11.0 2.1 16.1 14.1 9.3 18.7 8.7 12.5 7.4 6.2 9.4 6.2 6.9 1.3 0.6 0.5 0.6 0.0 0.2 0.4 0.5 0.3 0.9 0.9 1.3 2.9 2.9 3.8 4.0
0.0 0.0 0.0 0.0 0.0 0.0 0.0 0.0 0.0 7.8 11.7 0.4 1.0 1.2 4.0 27.3 27.7 32.8 26.7 19.4 8.7 8.3 3.4 3.2 2.9 3.2 3.0 3.9 13.1 11.5 9.1 15.1 20.2 7.7 13.1 9.3 12.1 4.2 0.2 1.2 1.4 0.7 0.9 1.5 1.7 3.9 2.0 2.0 1.7 2.4 2.8 2.6 3.9 3.3
0.0 0.0 0.0 0.0 0.0 0.0 0.0 0.0 0.0 0.0 0.0 3.3 9.8 17.1 19.1 25.7 23.6 16.7 14.8 11.0 8.9 4.2 3.0 1.2 6.3 3.5 4.8 4.4 15.9 11.9 16.9 15.7 9.4 16.3 8.8 9.0 6.7 3.5 1.8 1.7 2.2 2.5 3.2 4.3 4.2 3.3 3.9 2.8 2.9 1.8 3.6 6.0 7.7 9.6
0.0 0.0 0.0 0.0 0.0 0.0 0.0 0.0 0.0 0.0 4.9 15.7 15.7 18.1 10.1 11.5 10.0 9.0 9.2 8.2 5.5 3.0 3.5 3.0 4.4 11.7 9.1 11.3 15.0 19.1 16.6 11.4 13.3 10.9 8.7 8.3 6.1 6.8 5.4 4.5 2.9 3.1 3.5 2.5 3.4 3.9 6.8 7.0 8.6 9.9 10.2 12.8 13.1 12.7
0.0 0.0 0.0 0.0 0.0 0.0 0.0 0.0 0.0 0.0 10.9 15.5 9.3 7.2 7.9 8.7 6.3 6.7 5.9 4.9 3.9 4.5 4.6 5.9 7.1 9.9 12.4 14.7 13.5 11.0 11.1 8.9 6.5 14.4 13.1 10.7 7.8 7.1 6.4 6.3 6.1 6.3 6.5 6.7 7.9 8.5 10.9 11.8 10.1 11.6 11.6 11.4 12.1 11.6
0.0 0.0 0.0 0.0 0.0 0.0 0.0 0.0 1.8 4.9 10.2 7.9 9.5 10.7 7.4 7.5 9.2 7.6 5.7 6.3 4.6 6.3 7.7 9.3 15.1 17.2 16.0 11.7 6.7 6.9 4.9 7.4 14.7 11.0 9.4 8.8 8.5 9.2 9.5 8.5 8.7 8.3 7.9 8.0 8.4 8.0 8.1 8.8 9.6 11.2 9.4 8.8 11.4 12.7
0.0 4.6 0.0 0.0 0.0 0.0 0.0 11.5 14.5 15.0 9.3 6.4 12.1 13.6 10.6 8.7 14.5 12.2 9.5 8.4 5.2 5.3 11.2 11.1 10.6 12.1 8.2 9.6 7.1 5.8 9.2 10.9 9.2 9.1 8.9 8.6 8.6 9.8 10.2 10.0 9.7 7.2 6.5 6.7 6.7 6.6 6.7 7.2 6.4 5.4 6.0 8.7 8.4 9.1
1.8 0.0 0.0 0.0 0.0 0.3 15.4 10.0 10.1 8.0 7.2 10.9 13.7 14.0 7.9 9.4 10.4 9.2 8.3 4.8 2.5 5.0 5.0 9.6 5.5 7.0 11.5 9.1 9.7 11.4 11.6 11.0 10.4 9.6 9.4 8.9 8.6 8.5 7.9 7.6 7.7 6.7 6.2 5.6 4.6 4.3 4.0 3.5 2.7 3.4 3.4 4.2 4.2 5.6
0.4 0.0 0.0 0.0 0.0 8.8 14.9 10.8 3.1 7.7 12.4 9.6 11.2 5.8 4.5 6.7 6.5 4.9 4.9 2.7 1.3 1.9 3.1 8.5 8.0 7.9 9.4 10.3 10.0 9.4 9.2 8.2 9.1 8.5 7.6 7.4 6.7 6.8 6.2 5.7 6.5 6.8 5.8 4.7 3.0 2.4 2.1 1.6 1.6 1.6 1.6 1.3 2.1 2.5
0.1 0.1 0.0 0.1 0.6 7.3 5.9 7.4 0.4 7.4 11.7 10.4 4.9 3.2 2.7 4.9 2.9 2.3 2.0 3.7 4.0 5.4 9.7 7.6 11.9 11.8 10.5 8.5 6.6 6.7 6.8 6.1 4.9 3.9 5.7 6.4 6.1 4.4 5.1 4.3 4.2 4.1 4.3 3.1 2.3 1.6 1.4 1.3 1.5 1.4 1.3 1.3 1.5 1.5
1.4 0.2 0.7 1.1 7.0 7.7 5.0 5.5 3.1 2.9 4.9 3.2 6.4 5.2 6.6 3.9 8.2 9.4 8.5 5.1 12.0 10.1 9.4 8.8 9.6 9.5 6.6 5.7 4.2 3.6 4.4 3.8 3.9 2.8 3.2 4.9 4.8 3.0 3.1 3.3 2.8 2.6 2.4 3.0 2.6 2.6 1.9 2.0 1.7 1.3 1.0 1.1 1.3 1.2
14.3 1.4 9.4 4.5 6.2 7.4 3.7 0.5 4.2 4.2 5.8 7.2 4.8 5.2 8.4 10.0 10.5 11.2 7.1 7.4 12.7 10.9 8.7 6.1 5.1 4.2 3.1 2.7 2.6 1.7 2.6 2.0 2.7 3.6 4.3 3.4 4.0 3.7 4.0 4.1 3.7 3.2 3.0 3.1 2.6 2.5 2.1 1.6 0.8 0.6 0.6 1.1 0.9 0.8
2.6 5.0 10.0 7.0 9.7 7.6 4.8 3.1 3.4 1.8 3.9 3.2 2.7 3.9 4.6 5.2 7.7 5.2 7.8 9.2 13.1 11.7 7.7 3.9 2.7 1.8 2.0 2.3 1.3 1.3 1.2 0.8 1.4 2.2 2.5 2.8 2.8 2.9 2.7 2.8 2.9 2.5 2.4 2.2 1.3 0.9 0.7 0.4 0.3 0.3 0.6 0.8 1.1 1.7
5.1 10.2 8.5 5.3 4.4 6.0 2.9 2.6 1.7 1.5 1.3 1.6 2.6 3.4 3.2 4.2 6.0 8.0 8.6 8.5 12.8 7.0 3.6 4.5 3.5 2.8 2.5 2.5 2.5 2.6 2.8 1.9 2.0 2.2 2.7 2.4 2.9 3.0 1.7 1.4 1.1 0.8 0.7 0.2 0.2 0.3 0.4 0.9 0.8 1.1 0.9 1.2 1.2 1.2
10.4 11.5 9.2 5.0 2.3 2.2 1.3 1.7 2.5 2.6 2.1 0.7 1.7 2.2 2.8 3.2 6.8 5.8 5.4 11.0 11.6 8.3 6.8 4.6 4.3 4.6 4.8 5.4 5.4 5.2 2.8 1.6 1.6 2.0 2.5 1.6 2.2 1.5 1.9 1.8 1.5 1.3 0.7 1.0 1.4 0.8 0.9 0.9 1.4 1.6 1.9 1.8 1.5 2.0
8.8 3.1 3.1 3.4 2.5 2.7 2.0 1.7 1.7 1.3 1.3 1.7 3.3 1.6 2.0 5.9 6.5 7.8 10.2 14.0 10.6 8.9 7.8 6.7 6.1 4.9 5.5 4.2 5.8 4.9 4.2 1.2 0.7 1.5 1.9 0.8 0.7 2.0 2.2 2.5 3.1 2.9 2.0 1.4 1.5 1.7 2.3 1.9 2.3 2.9 3.1 2.2 2.4 1.9
6.1 4.9 2.5 1.9 3.6 4.5 6.0 5.4 4.8 4.7 4.9 5.6 3.9 4.1 6.1 9.4 8.9 11.7 11.1 10.3 10.0 9.6 7.4 5.3 3.7 4.8 4.7 4.1 3.8 3.2 1.8 2.1 2.8 3.1 2.6 2.7 2.3 1.7 2.4 3.2 3.4 2.8 1.2 1.8 2.6 2.8 3.2 3.9 3.8 3.4 3.4 3.6 2.4 2.0
4.2 2.5 3.8 3.2 4.0 5.6 6.3 5.0 6.1 8.2 7.3 5.3 4.4 5.8 6.4 7.6 10.7 10.9 9.9 11.0 9.5 6.3 7.0 7.6 6.2 4.7 6.5 7.4 6.3 5.8 6.3 5.5 5.0 3.7 3.5 4.9 3.1 2.0 1.7 2.3 1.7 1.8 0.8 1.5 2.8 3.6 4.9 4.6 5.0 4.1 4.1 4.5 4.0 3.6
3.1 1.3 1.9 2.1 1.4 5.0 5.4 5.3 6.6 5.7 3.8 4.7 7.2 7.7 6.3 6.0 10.7 10.1 10.3 8.6 8.3 6.3 7.6 8.1 11.3 7.8 6.8 9.5 10.3 9.4 8.7 8.7 7.5 6.6 5.0 5.0 4.7 3.7 2.0 1.7 3.3 3.1 2.2 2.5 3.4 3.8 4.4 4.9 5.0 5.1 4.8 6.0 4.7 5.2
0.9 0.4 1.0 0.3 0.6 4.4 7.2 4.5 4.9 4.5 2.8 4.1 3.9 3.3 4.1 9.8 15.1 9.5 7.4 6.3 6.8 7.7 8.1 7.3 7.5 6.2 7.6 7.6 10.4 10.2 9.8 11.7 12.1 9.9 7.5 5.5 4.4 2.7 2.4 2.3 2.2 2.6 1.6 2.7 3.0 4.4 4.8 6.3 7.2 7.7 7.5 7.8 8.7 8.8
1.4 1.7 1.5 0.8 2.3 5.0 3.5 1.8 2.5 3.5 4.7 6.5 5.3 2.6 4.2 8.7 9.3 6.8 6.3 7.1 5.3 4.2 3.7 4.7 5.1 5.0 6.3 7.5 8.6 8.5 10.1 12.3 14.1 13.2 12.2 9.8 7.1 5.5 4.0 3.4 3.0 3.0 4.4 4.7 4.3 3.8 4.9 5.9 6.1 6.5 6.5 6.2 6.2 5.5
2.5 3.0 2.6 2.2 4.7 3.7 2.0 2.3 4.1 5.9 7.1 7.8 9.2 7.8 7.6 4.8 4.1 5.9 6.4 5.8 4.4 4.0 4.1 3.9 5.1 6.4 6.6 8.4 9.0 9.4 9.5 10.6 11.5 12.1 14.2 12.2 9.8 7.8 5.9 4.9 4.5 4.7 6.4 5.8 5.0 5.3 5.3 5.3 5.7 5.9 6.3 6.2 6.0 6.8
2.8 1.4 1.7 1.9 2.4 1.7 1.7 2.1 4.3 5.6 6.0 6.7 8.7 7.6 5.9 3.5 5.1 7.1 5.5 4.5 5.8 5.3 4.7 4.6 4.6 5.9 6.5 5.8 5.6 5.9 6.0 6.9 7.6 7.9 9.7 10.1 9.9 9.2 8.2 6.9 5.9 5.8 5.9 6.2 5.3 5.0 5.4 5.0 5.4 5.1 5.9 5.6 5.1 5.6

GFSWCAN_prec_snow_276.txt.gz
Snowfall_Accumulation
0.0 0.0 0.0 0.0 0.0 0.0 0.0 0.0 0.0 0.0 0.0 0.0 0.0 0.0 0.0 0.0 0.0 0.0 0.0 0.0 4.5 40.1 4.7 0.0 0.0 0.3 2.9 2.1 10.1 4.5 14.6 10.4 16.3 19.2 18.8 15.3 16.5 10.6 8.1 3.0 2.9 5.2 18.3 19.0 17.8 23.9 10.3 0.0 1.0 4.8 3.0 5.5 7.3 8.5
0.0 0.0 0.0 0.0 0.0 0.0 0.0 0.0 0.0 0.0 0.0 0.0 0.0 0.0 0.0 0.0 0.0 0.0 6.3 0.0 0.0 14.3 10.0 0.0 0.0 0.0 0.0 0.0 1.9 3.9 6.4 8.7 11.8 16.1 13.8 10.5 10.4 7.2 9.0 11.3 1.7 6.8 6.2 12.8 12.9 10.0 2.4 0.8 1.3 1.8 1.3 4.4 6.7 6.8
0.0 0.0 0.0 0.0 0.0 0.0 0.0 0.0 0.0 0.0 0.0 0.0 0.0 0.0 0.0 0.0 0.0 0.0 6.4 0.0 0.1 31.2 10.6 0.8 0.2 0.0 0.0 0.0 0.0 9.6 1.8 0.7 3.6 1.2 13.4 12.5 12.1 2.0 8.7 6.2 6.3 5.8 2.5 6.0 5.9 5.6 1.8 1.1 1.1 2.1 3.1 5.3 5.0 4.7
0.0 0.0 0.0 0.0 0.0 0.0 0.0 0.0 0.0 0.0 0.0 0.0 0.0 0.0 0.0 0.0 0.0 0.0 5.6 0.0 0.3 9.4 34.0 12.5 0.0 0.0 0.0 0.0 0.0 0.0 0.0 0.0 0.5 1.6 20.2 16.8 14.7 3.0 9.9 7.2 6.9 10.0 5.2 4.9 10.3 13.9 2.1 3.5 5.6 4.5 4.7 4.5 3.9 4.1
0.0 0.0 0.0 0.0 0.0 0.0 0.0 0.0 0.0 0.0 0.0 0.0 0.0 0.0 0.0 0.0 0.0 0.0 0.0 0.0 0.0 4.4 22.3 14.6 0.0 0.0 0.0 0.0 0.0 0.0 0.0 1.8 9.9 17.7 19.9 12.4 3.8 11.1 11.6 7.2 5.0 6.4 8.2 10.3 11.3 8.2 9.3 7.0 5.9 4.8 3.5 3.2 2.5 1.5
0.0 0.0 0.0 0.0 0.0 0.0 0.0 0.0 0.0 0.0 0.0 0.0 0.0 0.0 0.0 0.0 0.0 0.0 68.1 7.2 0.0 0.0 25.5 23.5 4.2 1.5 0.0 0.0 0.0 0.0 0.0 0.7 8.2 18.8 12.4 3.1 0.0 7.3 22.4 9.7 5.3 7.3 9.9 8.5 8.1 8.0 6.4 5.1 3.9 2.8 2.2 2.2 1.5 0.9
0.0 0.0 0.0 0.0 0.0 0.0 0.0 0.0 0.0 0.0 0.0 0.0 0.0 0.0 0.0 0.0 0.0 29.9 23.6 0.7 0.0 0.0 26.5 20.5 12.2 6.8 1.5 0.0 0.0 3.2 2.5 12.8 18.4 23.0 16.1 5.4 1.8 10.8 21.0 10.6 7.1 7.6 8.0 6.4 4.6 3.5 3.1 3.1 2.5 1.4 0.8 0.7 0.5 0.1
0.0 0.0 0.0 0.0 0.0 0.0 0.0 0.0 0.0 0.0 0.0 0.0 0.0 0.0 0.0 0.0 0.0 13.4 0.0 0.0 0.0 7.6 12.3 24.2 18.8 20.6 0.0 9.2 14.1 3.7 9.9 11.8 14.4 13.2 13.1 6.8 7.6 12.9 20.2 5.8 4.1 3.6 3.9 2.8 1.9 0.9 0.5 0.2 0.0 0.0 0.0 0.0 0.0 0.0
0.0 0.0 0.0 0.0 0.0 0.0 0.0 0.0 0.0 0.0 0.0 0.0 0.0 0.0 0.0 14.4 36.1 2.2 0.0 0.0 0.0 9.6 22.1 7.7 11.2 25.5 6.7 8.7 7.8 7.8 6.5 23.0 5.8 15.5 9.4 8.7 13.2 15.6 9.6 3.5 2.3 1.2 1.8 1.3 0.0 0.0 0.0 0.0 0.0 0.0 0.2 0.2 0.3 0.9
0.0 0.0 0.0 0.0 0.0 0.0 0.0 0.0 0.0 0.0 0.0 0.0 3.4 55.9 98.3 24.7 0.0 0.0 4.1 37.5 36.6 23.3 16.5 11.4 2.3 12.5 4.9 11.1 13.8 14.8 8.9 12.2 15.0 8.1 2.3 13.7 7.8 3.2 2.5 1.4 0.8 0.4 1.1 0.5 0.2 0.1 0.1 0.1 0.3 0.3 0.6 0.9 2.4 2.2
0.0 0.0 0.0 0.0 0.0 0.0 0.0 0.0 0.0 0.0 0.0 11.3 52.3 49.7 3.7 0.0 3.7 28.1 53.8 39.5 25.2 20.6 7.8 5.7 3.7 11.0 2.1 16.1 14.1 9.3 19.9 9.2 12.9 7.6 6.5 9.7 6.2 6.9 1.3 0.6 0.5 0.6 0.0 0.2 0.4 0.5 0.3 0.9 0.9 1.3 2.9 2.9 3.8 4.0
0.0 0.0 0.0 0.0 0.0 0.0 0.0 0.0 0.0 7.8 11.7 0.4 1.8 1.2 6.9 29.3 29.3 34.2 27.4 19.7 8.8 8.3 3.4 3.2 2.9 3.2 3.0 3.9 13.1 11.5 9.1 16.0 20.9 7.7 13.1 9.3 12.1 4.2 0.2 1.2 1.4 0.7 0.9 1.5 1.7 3.9 2.0 2.0 1.7 2.4 2.8 2.6 3.9 3.3
0.0 0.0 0.0 0.0 0.0 0.0 0.0 0.0 0.0 0.0 0.0 3.3 10.9 19.0 20.3 26.5 24.0 16.9 14.8 11.1 8.9 4.2 3.0 1.2 6.3 3.5 4.8 4.4 15.9 11.9 18.6 17.1 9.9 17.2 9.3 9.0 6.7 3.5 1.8 1.7 2.2 2.5 3.2 4.3 4.2 3.3 3.9 2.8 2.9 1.8 3.6 6.0 7.7 9.6
0.0 0.0 0.0 0.0 0.0 0.0 0.0 0.0 0.0 0.0 4.9 16.2 16.2 18.8 10.1 11.7 10.0 9.0 9.2 8.2 5.5 3.0 3.5 3.0 4.4 11.7 9.1 11.3 15.0 19.1 16.6 13.0 14.2 11.0 8.7 8.3 6.1 6.8 5.4 4.5 2.9 3.1 3.5 2.5 3.4 3.9 6.8 7.0 8.6 9.9 10.2 12.8 13.1 12.7
0.0 0.0 0.0 0.0 0.0 0.0 0.0 0.0 0.0 0.0 10.9 15.5 9.3 7.2 7.9 8.7 6.3 6.7 5.9 4.9 3.9 4.5 4.6 5.9 7.1 9.9 12.4 14.7 13.6 11.0 11.1 8.9 7.4 14.4 13.1 10.7 7.8 7.1 6.4 6.3 6.1 6.3 6.5 6.7 7.9 8.5 10.9 11.8 10.1 11.6 11.6 11.4 12.1 11.6
0.0 0.0 0.0 0.0 0.0 0.0 0.0 0.0 1.8 5.1 10.2 7.9 9.5 10.7 7.4 7.5 9.2 7.6 5.7 6.3 4.6 6.3 7.7 9.3 15.1 17.2 16.0 11.7 6.7 6.9 4.9 8.3 14.7 11.0 9.4 8.8 8.5 9.2 9.5 8.5 8.7 8.3 7.9 8.0 8.4 8.0 8.1 8.8 9.6 11.2 9.4 8.8 11.4 12.7
0.0 4.6 0.0 0.0 0.0 0.0 0.0 12.8 15.1 15.0 9.3 6.4 12.1 13.6 10.6 8.7 14.5 12.2 9.5 8.4 5.2 5.3 11.2 11.1 10.6 12.1 9.0 9.6 7.1 5.8 9.2 10.9 9.2 9.1 8.9 8.6 8.6 9.8 10.2 10.0 9.7 7.2 6.5 6.7 6.7 6.6 6.7 7.2 6.4 5.4 6.0 8.7 8.4 9.1
3.8 0.0 0.0 0.0 0.0 0.3 15.6 10.0 10.1 8.1 7.2 10.9 13.7 14.0 7.9 9.4 10.4 9.2 8.3 4.8 2.5 5.0 5.0 9.6 5.5 7.0 11.5 9.9 9.7 11.4 11.6 11.1 10.4 9.6 9.4 8.9 8.6 8.5 7.9 7.6 7.7 6.7 6.2 5.6 4.6 4.3 4.0 3.5 2.7 3.4 3.4 4.2 4.2 5.6
0.4 0.0 0.0 0.0 0.0 8.8 15.0 10.8 3.1 7.7 12.4 9.6 11.2 5.8 4.5 6.7 6.5 4.9 4.9 2.7 1.3 1.9 3.1 8.5 8.0 7.9 9.4 10.3 10.0 9.4 9.3 8.2 9.1 8.5 7.6 7.4 6.7 6.8 6.2 5.7 6.5 6.8 5.8 4.7 3.0 2.4 2.1 1.6 1.6 1.6 1.6 1.3 2.1 2.5
0.1 0.1 0.0 0.1 0.6 7.3 5.9 7.4 0.4 7.4 11.7 10.4 4.9 3.2 2.7 4.9 2.9 2.3 2.0 3.7 4.0 5.4 9.7 7.6 11.9 11.8 10.5 8.5 6.9 6.9 6.9 6.1 4.9 3.9 5.7 6.4 6.1 4.4 5.1 4.3 4.2 4.1 4.3 3.1 2.3 1.6 1.4 1.3 1.5 1.4 1.3 1.3 1.5 1.5
1.4 0.2 0.7 1.1 7.0 7.7 5.0 5.5 3.1 2.9 4.9 3.2 6.4 5.2 6.6 3.9 8.2 9.4 8.5 5.1 12.0 10.1 9.4 8.8 9.6 9.5 6.8 5.8 4.3 3.7 4.4 3.8 3.9 2.8 3.2 4.9 4.8 3.0 3.1 3.3 2.8 2.6 2.4 3.0 2.6 2.6 1.9 2.0 1.7 1.3 1.0 1.1 1.3 1.2
14.3 1.4 9.4 4.5 6.2 7.4 3.7 0.5 4.3 4.2 6.2 7.2 6.0 6.4 9.5 10.9 10.5 11.2 7.1 7.4 12.7 10.9 8.7 6.1 5.1 4.3 3.5 2.9 2.6 1.7 2.6 2.0 2.7 3.6 4.3 3.4 4.0 3.7 4.0 4.1 3.7 3.2 3.0 3.1 2.6 2.5 2.1 1.6 0.8 0.6 0.6 1.1 0.9 0.8
2.6 5.0 10.0 7.0 9.7 7.7 5.4 4.8 5.2 3.6 5.9 5.1 3.9 5.0 5.8 6.4 9.1 6.2 9.2 9.2 13.1 11.7 7.7 3.9 2.7 1.8 2.0 2.6 1.5 1.3 1.2 0.8 1.4 2.3 2.5 2.8 2.8 2.9 2.7 2.8 2.9 2.5 2.4 2.2 1.3 0.9 0.7 0.4 0.3 0.3 0.6 0.8 1.1 1.7
5.1 10.2 8.5 5.3 4.4 6.6 3.9 2.6 1.7 1.5 1.3 2.5 3.7 4.4 4.5 5.6 7.1 9.0 9.8 10.5 14.9 8.9 5.1 5.5 3.8 3.4 3.0 2.6 2.5 2.6 2.8 1.9 2.0 2.2 2.7 2.4 2.9 3.0 1.7 1.4 1.1 0.8 0.7 0.2 0.2 0.3 0.4 0.9 0.8 1.1 0.9 1.2 1.2 1.2
10.5 11.5 9.2 5.0 2.6 2.2 1.3 1.7 2.5 2.6 2.1 0.7 1.8 2.7 4.1 4.5 7.4 6.4 6.4 12.5 13.5 9.5 7.3 4.7 4.3 4.7 4.8 5.4 5.4 5.2 2.8 1.6 1.6 2.0 2.8 1.6 2.2 1.5 2.3 1.8 1.5 1.3 0.7 1.0 1.4 0.8 0.9 0.9 1.4 1.6 1.9 1.8 1.5 2.0
8.8 3.1 3.1 3.4 2.5 2.7 2.0 1.7 1.7 1.3 1.3 1.7 3.3 1.6 2.2 6.2 6.8 8.4 10.7 14.5 11.1 9.6 8.1 6.7 6.1 4.9 5.5 4.2 5.8 4.9 4.4 1.2 0.7 1.5 2.3 1.3 1.4 2.0 2.5 3.0 3.6 3.7 2.6 1.5 1.6 1.8 2.3 1.9 2.3 2.9 3.1 2.2 2.4 1.9
6.1 4.9 2.5 1.9 3.6 4.5 6.0 5.4 4.8 4.7 4.9 5.6 3.9 4.1 6.1 9.4 8.9 11.8 11.2 10.4 10.2 9.8 7.6 5.3 3.7 4.8 4.7 4.2 3.9 3.4 1.9 2.2 3.1 3.6 3.4 3.5 3.1 2.2 2.7 3.4 3.5 3.0 1.2 1.8 2.6 2.9 3.3 3.9 3.8 3.4 3.4 3.6 2.4 2.0
4.2 2.5 3.8 3.2 4.0 5.6 6.3 5.0 6.1 8.2 7.3 5.3 4.4 5.8 6.4 7.6 10.7 10.9 10.0 11.2 9.7 6.5 7.2 7.8 6.3 4.8 6.6 7.6 6.5 6.1 6.9 6.3 6.1 4.3 3.7 5.2 3.4 2.3 1.8 2.5 1.9 1.9 0.8 1.5 2.8 3.6 4.9 4.6 5.0 4.1 4.1 4.5 4.0 3.6
3.1 1.3 1.9 2.1 1.4 5.0 5.4 5.3 6.6 5.7 3.8 4.7 7.2 7.7 6.3 6.1 10.8 10.2 10.5 8.8 8.5 6.3 7.6 8.1 11.6 8.0 7.1 9.8 10.7 9.8 9.1 8.7 7.5 6.6 5.0 5.1 4.7 3.7 2.0 1.7 3.3 3.1 2.2 2.5 3.4 3.8 4.4 4.9 5.0 5.1 4.8 6.0 4.7 5.2
0.9 0.4 1.0 0.3 0.6 4.4 7.2 4.5 4.9 4.5 2.8 4.1 3.9 3.3 4.1 9.9 15.4 9.7 7.4 6.3 6.8 7.7 8.2 7.3 7.8 6.3 7.8 7.7 10.6 10.4 10.0 11.7 12.1 9.9 7.5 5.5 4.4 2.7 2.4 2.3 2.2 2.6 1.6 2.7 3.0 4.4 4.8 6.3 7.2 7.7 7.5 7.8 8.7 8.8
1.4 1.7 1.5 0.8 2.3 5.0 3.5 1.8 2.5 3.5 4.7 6.5 5.3 2.6 4.2 8.7 9.3 7.0 6.4 7.3 5.6 4.4 3.7 4.8 5.4 5.2 6.4 7.5 8.6 8.5 10.1 12.3 14.1 13.2 12.2 9.8 7.1 5.5 4.0 3.4 3.0 3.0 4.4 4.7 4.3 3.8 4.9 5.9 6.1 6.5 6.5 6.2 6.2 5.5
2.5 3.0 2.6 2.2 4.7 3.7 2.0 2.3 4.1 5.9 7.1 7.8 9.2 7.8 7.6 4.8 4.1 5.9 6.5 6.0 4.6 4.2 4.4 4.0 5.1 6.7 6.6 8.4 9.0 9.4 9.5 10.6 11.5 12.1 14.2 12.2 9.8 7.8 5.9 4.9 4.5 4.7 6.4 5.8 5.0 5.3 5.3 5.3 5.7 5.9 6.3 6.2 6.0 6.8
2.8 1.4 1.7 1.9 2.4 1.8 1.7 2.1 4.3 5.6 6.0 6.7 8.7 7.6 5.9 3.5 5.1 7.1 5.5 4.6 5.9 5.3 5.0 5.0 4.8 5.9 6.5 5.8 5.6 5.9 6.0 6.9 7.6 7.9 9.7 10.1 9.9 9.2 8.2 6.9 5.9 5.8 5.9 6.2 5.3 5.0 5.4 5.0 5.4 5.1 5.9 5.6 5.1 5.6

GFSWCAN_prec_snow_279.txt.gz
Snowfall_Accumulation
0.0 0.0 0.0 0.0 0.0 0.0 0.0 0.0 0.0 0.0 0.0 0.0 0.0 0.0 0.0 0.0 0.0 0.0 0.0 0.0 4.5 40.1 4.7 0.0 0.0 0.3 2.9 2.4 10.3 4.5 14.6 10.4 16.3 19.2 18.8 15.3 16.5 10.6 8.1 3.0 2.9 5.2 18.3 19.0 17.8 23.9 10.3 0.0 1.0 4.8 3.0 5.5 7.3 8.5
0.0 0.0 0.0 0.0 0.0 0.0 0.0 0.0 0.0 0.0 0.0 0.0 0.0 0.0 0.0 0.0 0.0 0.0 7.1 0.0 0.0 14.3 10.0 0.0 0.0 0.0 0.0 0.0 1.9 4.1 6.4 8.7 11.8 16.1 13.8 10.5 10.4 7.2 9.0 11.3 1.7 6.8 6.2 12.8 12.9 10.0 2.4 0.8 1.3 1.8 1.3 4.4 6.7 6.8
0.0 0.0 0.0 0.0 0.0 0.0 0.0 0.0 0.0 0.0 0.0 0.0 0.0 0.0 0.0 0.0 0.0 0.0 7.2 0.0 0.2 31.3 10.6 0.8 0.2 0.0 0.0 0.0 0.0 9.7 2.0 0.7 3.6 1.2 13.4 12.5 12.1 2.0 8.7 6.2 6.3 5.8 2.5 6.0 5.9 5.6 1.8 1.1 1.1 2.1 3.1 5.3 5.0 4.7
0.0 0.0 0.0 0.0 0.0 0.0 0.0 0.0 0.0 0.0 0.0 0.0 0.0 0.0 0.0 0.0 0.0 0.0 7.0 0.0 0.5 9.4 34.0 12.5 0.0 0.0 0.0 0.0 0.0 0.0 0.0 0.0 2.1 2.4 20.3 16.8 14.7 3.0 9.9 7.2 6.9 10.0 5.2 4.9 10.3 13.9 2.1 3.5 5.6 4.5 4.7 4.5 3.9 4.1
0.0 0.0 0.0 0.0 0.0 0.0 0.0 0.0 0.0 0.0 0.0 0.0 0.0 0.0 0.0 0.0 0.0 0.0 0.0 0.0 0.0 4.4 22.3 14.6 0.0 0.0 0.0 0.0 0.0 0.0 0.0 1.8 10.4 19.8 21.6 12.7 3.8 11.1 11.6 7.2 5.0 6.4 8.2 10.3 11.3 8.2 9.3 7.0 5.9 4.8 3.5 3.2 2.5 1.5
0.0 0.0 0.0 0.0 0.0 0.0 0.0 0.0 0.0 0.0 0.0 0.0 0.0 0.0 0.0 0.0 0.0 0.0 69.6 8.2 0.0 0.0 25.6 23.5 4.2 1.5 0.0 0.0 0.0 0.0 0.0 0.7 8.2 19.7 13.8 3.8 0.0 7.5 22.4 9.7 5.3 7.3 9.9 8.5 8.1 8.0 6.4 5.1 3.9 2.8 2.2 2.2 1.5 0.9
0.0 0.0 0.0 0.0 0.0 0.0 0.0 0.0 0.0 0.0 0.0 0.0 0.0 0.0 0.0 0.0 0.0 30.9 23.6 0.7 0.0 0.0 26.7 20.5 12.2 6.8 1.5 0.0 0.0 3.2 2.5 12.8 18.4 23.1 16.7 5.8 2.0 11.6 21.9 10.6 7.1 7.6 8.0 6.4 4.6 3.5 3.1 3.1 2.5 1.4 0.8 0.7 0.5 0.1
0.0 0.0 0.0 0.0 0.0 0.0 0.0 0.0 0.0 0.0 0.0 0.0 0.0 0.0 0.0 0.0 0.0 14.7 0.0 0.0 0.0 9.0 12.8 24.2 18.8 20.6 0.0 9.2 14.1 3.7 9.9 11.8 14.4 13.2 13.2 7.1 7.8 13.1 20.8 5.8 4.1 3.6 3.9 2.8 1.9 0.9 0.5 0.2 0.0 0.0 0.0 0.0 0.0 0.0
0.0 0.0 0.0 0.0 0.0 0.0 0.0 0.0 0.0 0.0 0.0 0.0 0.0 0.0 0.0 14.4 37.2 2.2 0.0 0.0 0.0 10.6 22.4 7.7 11.2 25.5 6.7 8.7 7.8 7.8 6.5 23.0 5.8 15.5 9.4 8.9 13.6 15.9 9.6 3.5 2.3 1.2 1.8 1.3 0.0 0.0 0.0 0.0 0.0 0.0 0.2 0.2 0.3 0.9
0.0 0.0 0.0 0.0 0.0 0.0 0.0 0.0 0.0 0.0 0.0 0.0 3.4 56.9 99.1 24.7 0.0 0.0 6.9 40.5 38.2 23.8 16.5 11.4 2.3 12.5 4.9 11.1 13.8 14.8 8.9 12.4 15.2 8.1 2.3 14.1 7.8 3.2 2.5 1.4 0.8 0.4 1.1 0.5 0.2 0.1 0.1 0.1 0.3 0.3 0.6 0.9 2.4 2.2
0.0 0.0 0.0 0.0 0.0 0.0 0.0 0.0 0.0 0.0 0.0 11.3 54.7 50.1 3.7 0.0 4.3 30.5 57.4 40.7 25.7 20.9 7.8 5.7 3.7 11.0 2.1 16.1 14.1 9.3 19.9 10.1 13.4 7.6 6.5 9.7 6.2 6.9 1.3 0.6 0.5 0.6 0.0 0.2 0.4 0.5 0.3 0.9 0.9 1.3 2.9 2.9 3.8 4.0
0.0 0.0 0.0 0.0 0.0 0.0 0.0 0.0 0.0 7.8 15.3 0.4 2.5 1.2 9.1 32.5 30.4 35.9 28.8 20.0 8.8 8.3 3.4 3.2 2.9 3.2 3.0 3.9 13.1 11.5 9.1 16.5 20.9 8.0 13.3 9.3 12.1 4.2 0.2 1.2 1.4 0.7 0.9 1.5 1.7 3.9 2.0 2.0 1.7 2.4 2.8 2.6 3.9 3.3
0.0 0.0 0.0 0.0 0.0 0.0 0.0 0.0 0.0 0.0 0.0 3.8 11.3 19.0 20.3 27.4 24.0 16.9 14.8 11.1 8.9 4.2 3.0 1.2 6.3 3.5 4.8 4.4 15.9 11.9 18.6 17.1 9.9 17.2 9.7 9.0 6.7 3.5 1.8 1.7 2.2 2.5 3.2 4.3 4.2 3.3 3.9 2.8 2.9 1.8 3.6 6.0 7.7 9.6
0.0 0.0 0.0 0.0 0.0 0.0 0.0 0.0 0.0 0.0 5.2 16.9 16.5 19.2 10.1 11.7 10.0 9.0 9.2 8.2 5.5 3.0 3.5 3.0 4.4 11.7 9.1 11.3 15.0 19.1 16.6 13.0 14.2 11.0 8.7 8.3 6.1 6.8 5.4 4.5 2.9 3.1 3.5 2.5 3.4 3.9 6.8 7.0 8.6 9.9 10.2 12.8 13.1 12.7
0.0 0.0 0.0 0.0 0.0 0.0 0.0 0.0 0.0 0.0 11.1 15.5 9.3 7.2 7.9 8.7 6.3 6.7 5.9 4.9 3.9 4.5 4.6 5.9 7.1 9.9 12.4 14.7 13.6 11.0 11.1 8.9 7.4 14.4 13.1 10.7 7.8 7.1 6.4 6.3 6.1 6.3 6.5 6.7 7.9 8.5 10.9 11.8 10.1 11.6 11.6 11.4 12.1 11.6
0.0 0.0 0.0 0.0 0.0 0.0 0.0 0.0 1.8 5.1 10.2 7.9 9.5 10.7 7.4 7.5 9.2 7.6 5.7 6.3 4.6 6.3 7.7 9.3 15.1 17.2 16.0 11.7 6.7 6.9 4.9 8.3 14.7 11.0 9.4 8.8 8.5 9.2 9.5 8.5 8.7 8.3 7.9 8.0 8.4 8.0 8.1 8.8 9.6 11.2 9.4 8.8 11.4 12.7
0.0 8.0 0.0 0.0 0.0 0.0 0.0 14.1 15.2 15.0 9.3 6.4 12.1 13.6 10.6 8.7 14.5 12.2 9.5 8.4 5.2 5.3 11.2 11.1 10.6 12.1 9.0 9.6 7.1 5.8 9.2 10.9 9.2 9.1 8.9 8.6 8.6 9.8 10.2 10.0 9.7 7.2 6.5 6.7 6.7 6.6 6.7 7.2 6.4 5.4 6.0 8.7 8.4 9.1
5.2 0.0 0.0 0.0 0.0 0.3 15.8 10.0 10.1 8.1 7.2 10.9 13.7 14.0 7.9 9.4 10.4 9.2 8.3 4.8 2.5 5.0 5.0 9.6 5.5 7.0 11.5 9.9 9.7 11.4 11.6 11.1 10.4 9.6 9.4 8.9 8.6 8.5 7.9 7.6 7.7 6.7 6.2 5.6 4.6 4.3 4.0 3.5 2.7 3.4 3.4 4.2 4.2 5.6
0.4 0.0 0.0 0.0 0.0 8.8 15.0 10.8 3.1 7.7 12.4 9.6 11.2 5.8 4.5 6.7 6.5 4.9 4.9 2.7 1.3 1.9 3.1 8.5 8.0 7.9 9.4 10.3 10.0 9.4 9.3 8.2 9.2 8.5 7.6 7.4 6.7 6.8 6.2 5.7 6.5 6.8 5.8 4.7 3.0 2.4 2.1 1.6 1.6 1.6 1.6 1.3 2.1 2.5
0.1 0.1 0.0 0.1 0.6 7.3 5.9 7.4 0.4 7.4 11.7 10.4 4.9 3.2 2.7 4.9 2.9 2.3 2.0 3.7 4.0 5.4 9.7 7.6 11.9 11.8 10.5 8.5 6.9 6.9 6.9 6.1 4.9 3.9 5.7 6.4 6.1 4.4 5.1 4.3 4.2 4.1 4.3 3.1 2.3 1.6 1.4 1.3 1.5 1.4 1.3 1.3 1.5 1.5
1.4 0.2 0.7 1.1 7.0 7.7 5.0 5.5 3.1 2.9 4.9 3.2 6.4 5.2 6.6 3.9 8.2 9.4 8.5 5.1 12.0 10.1 9.4 8.8 9.6 9.5 6.8 5.8 4.3 3.7 4.4 3.8 3.9 2.8 3.2 4.9 4.8 3.0 3.1 3.3 2.8 2.6 2.4 3.0 2.6 2.6 1.9 2.0 1.7 1.3 1.0 1.1 1.3 1.2
14.3 1.4 9.4 4.5 6.2 7.4 3.7 0.5 4.3 4.2 6.2 7.2 6.5 7.2 10.1 10.9 10.5 11.2 7.1 7.4 12.7 10.9 8.7 6.1 5.1 4.3 3.5 3.1 2.7 1.8 2.7 2.0 2.7 3.6 4.3 3.4 4.0 3.7 4.0 4.1 3.7 3.2 3.0 3.1 2.6 2.5 2.1 1.6 0.8 0.6 0.6 1.1 0.9 0.8
2.6 5.0 10.0 7.0 9.7 8.1 5.9 5.7 6.1 4.5 6.7 6.2 4.9 6.0 7.1 7.4 9.6 6.4 9.3 9.2 13.1 11.7 7.7 3.9 2.7 1.8 2.0 2.6 1.5 1.3 1.3 0.9 1.4 2.3 2.5 2.8 2.8 2.9 2.7 2.8 2.9 2.5 2.4 2.2 1.3 0.9 0.7 0.4 0.3 0.3 0.6 0.8 1.1 1.7
5.1 10.2 8.5 5.3 4.4 6.6 4.1 3.1 2.0 2.1 2.2 3.3 4.3 4.8 4.8 6.0 7.9 9.9 10.5 11.0 14.9 8.9 5.1 5.5 3.8 3.4 3.7 3.0 3.0 2.9 2.9 2.0 2.1 2.2 2.7 2.4 2.9 3.0 1.7 1.4 1.1 0.8 0.7 0.2 0.2 0.3 0.4 0.9 0.8 1.1 0.9 1.2 1.2 1.2
10.5 11.5 9.2 5.0 2.6 2.2 1.3 1.7 2.5 2.6 2.4 1.1 1.8 3.2 4.7 5.0 7.8 6.8 7.0 13.6 15.3 11.9 9.0 5.8 5.4 5.6 5.1 5.5 5.6 5.3 2.8 1.6 1.6 2.0 2.8 1.6 2.2 1.5 2.3 1.8 1.5 1.3 0.7 1.0 1.4 0.8 0.9 0.9 1.4 1.6 1.9 1.8 1.5 2.0
8.8 3.1 3.1 3.4 2.5 2.7 2.0 1.7 1.7 1.3 1.3 1.7 3.4 2.0 2.8 6.4 7.0 8.9 11.2 15.4 12.1 10.6 9.0 7.1 6.3 5.0 5.6 4.2 5.8 5.0 4.5 1.2 0.7 1.5 2.5 1.4 1.6 2.2 2.5 3.0 3.6 3.7 2.6 1.5 1.6 1.8 2.3 1.9 2.3 2.9 3.2 2.2 2.5 1.9
6.1 4.9 2.5 1.9 3.6 4.5 6.0 5.4 4.8 4.7 4.9 5.6 3.9 4.1 6.1 9.4 9.0 12.2 11.6 10.8 10.4 10.1 7.8 5.5 3.8 4.8 4.7 4.3 3.9 3.5 1.9 2.3 3.2 3.8 3.7 3.8 3.5 2.5 2.8 3.8 4.1 3.7 1.7 1.8 2.9 3.2 3.3 3.9 3.8 3.6 3.6 3.7 2.4 2.0
4.2 2.5 3.8 3.2 4.0 5.6 6.3 5.0 6.1 8.2 7.3 5.3 4.4 5.8 6.4 7.6 10.8 11.0 10.1 11.3 9.8 6.6 7.3 7.8 6.4 4.9 6.7 7.7 6.6 6.2 7.1 6.5 6.5 4.6 3.7 5.2 3.7 2.6 2.1 2.8 2.5 2.5 1.2 1.7 2.9 3.7 5.0 4.7 5.1 4.1 4.1 4.5 4.0 3.6
3.1 1.3 1.9 2.1 1.4 5.0 5.4 5.3 6.6 5.8 3.8 4.7 7.2 7.7 6.3 6.1 10.9 10.2 10.6 8.9 8.5 6.3 7.6 8.1 11.7 8.1 7.2 9.8 10.8 10.0 9.5 9.1 7.5 6.7 5.0 5.3 4.8 3.9 2.0 1.7 3.3 3.1 2.2 2.5 3.4 3.8 4.4 4.9 5.0 5.1 4.8 6.0 4.7 5.2
0.9 0.4 1.0 0.3 0.6 4.4 7.2 4.5 4.9 4.5 2.8 4.1 3.9 3.3 4.1 10.0 15.6 9.9 7.5 6.4 6.8 7.8 8.2 7.4 7.9 6.5 7.9 7.7 10.9 10.9 10.4 12.0 12.1 9.9 7.5 5.5 4.4 2.7 2.4 2.3 2.2 2.6 1.6 2.7 3.0 4.4 4.8 6.3 7.2 7.7 7.5 7.8 8.7 8.8
1.4 1.7 1.5 0.8 2.3 5.0 3.5 1.8 2.5 3.5 4.7 6.5 5.3 2.6 4.2 8.8 9.4 7.0 6.5 7.4 5.7 4.4 3.8 4.9 5.6 5.6 6.6 7.7 8.8 8.7 10.4 12.5 14.1 13.2 12.2 9.8 7.1 5.5 4.0 3.4 3.0 3.0 4.4 4.7 4.3 3.8 4.9 5.9 6.1 6.5 6.5 6.2 6.2 5.5
2.5 3.0 2.6 2.2 4.7 3.8 2.0 2.3 4.1 5.9 7.1 7.8 9.2 7.8 7.6 4.8 4.1 5.9 6.6 6.1 4.7 4.3 4.4 4.0 5.1 7.0 6.8 8.4 9.0 9.4 9.5 10.6 11.5 12.1 14.2 12.2 9.8 7.8 5.9 4.9 4.5 4.7 6.4 5.8 5.0 5.3 5.3 5.3 5.7 5.9 6.3 6.2 6.0 6.8
2.9 1.4 1.7 1.9 2.5 1.8 1.7 2.1 4.3 5.6 6.0 6.7 8.7 7.6 5.9 3.5 5.1 7.1 5.5 4.7 5.9 5.3 5.0 5.0 4.8 5.9 6.5 5.8 5.6 5.9 6.0 6.9 7.6 7.9 9.7 10.1 9.9 9.2 8.2 6.9 5.9 5.8 5.9 6.2 5.3 5.0 5.4 5.0 5.4 5.1 5.9 5.6 5.1 5.6

GFSWCAN_prec_snow_285.txt.gz
Snowfall_Accumulation
0.0 0.0 0.0 0.0 0.0 0.0 0.0 0.0 0.0 0.0 0.0 0.0 0.0 0.0 0.0 0.0 0.0 0.0 0.0 0.0 4.5 40.3 4.7 0.0 0.0 0.3 3.0 2.9 10.8 5.3 15.2 10.5 16.7 19.4 18.9 15.3 16.5 10.6 8.1 3.0 2.9 5.2 18.3 19.0 17.8 23.9 10.3 0.0 1.0 4.8 3.0 5.5 7.3 8.5
0.0 0.0 0.0 0.0 0.0 0.0 0.0 0.0 0.0 0.0 0.0 0.0 0.0 0.0 0.0 0.0 0.0 0.0 8.7 0.0 0.0 15.0 10.1 0.0 0.0 0.0 0.0 0.0 1.9 4.6 7.1 9.2 11.8 16.6 13.9 10.5 10.4 7.2 9.0 11.3 1.7 6.8 6.2 12.8 12.9 10.0 2.4 0.8 1.3 1.8 1.3 4.4 6.7 6.8
0.0 0.0 0.0 0.0 0.0 0.0 0.0 0.0 0.0 0.0 0.0 0.0 0.0 0.0 0.0 0.0 0.0 0.0 7.2 0.0 2.8 32.1 10.6 0.8 0.2 0.0 0.0 0.0 0.0 10.1 2.4 2.7 4.6 1.4 13.7 12.5 12.3 2.0 8.7 6.2 6.3 5.8 2.5 6.0 5.9 5.6 1.8 1.1 1.1 2.1 3.1 5.3 5.0 4.7
0.0 0.0 0.0 0.0 0.0 0.0 0.0 0.0 0.0 0.0 0.0 0.0 0.0 0.0 0.0 0.0 0.0 0.0 7.0 0.0 0.5 10.4 34.3 12.5 0.0 0.0 0.0 0.0 0.0 0.0 0.0 1.0 4.1 3.5 20.5 17.1 15.0 3.0 9.9 7.2 6.9 10.0 5.2 4.9 10.3 13.9 2.1 3.5 5.6 4.5 4.7 4.5 3.9 4.1
0.0 0.0 0.0 0.0 0.0 0.0 0.0 0.0 0.0 0.0 0.0 0.0 0.0 0.0 0.0 0.0 0.0 0.0 0.0 0.0 0.0 5.8 23.6 15.0 0.0 0.0 0.0 0.0 0.0 0.0 0.0 1.8 11.7 21.6 23.2 13.4 3.8 11.6 11.6 7.2 5.0 6.4 8.2 10.3 11.3 8.2 9.3 7.0 5.9 4.8 3.5 3.2 2.5 1.5
0.0 0.0 0.0 0.0 0.0 0.0 0.0 0.0 0.0 0.0 0.0 0.0 0.0 0.0 0.0 0.0 0.0 0.0 70.7 8.2 0.0 0.0 27.5 24.1 4.2 1.5 0.0 0.0 0.0 0.0 0.0 0.7 8.4 20.7 15.1 4.8 0.0 8.2 23.0 9.9 5.3 7.3 9.9 8.5 8.1 8.0 6.4 5.1 3.9 2.8 2.2 2.2 1.5 0.9
0.0 0.0 0.0 0.0 0.0 0.0 0.0 0.0 0.0 0.0 0.0 0.0 0.0 0.0 0.0 0.0 0.0 32.0 25.2 1.4 0.0 0.0 27.9 21.3 12.5 6.8 1.5 0.0 0.0 3.2 2.5 12.9 18.5 23.3 17.0 5.8 2.1 13.8 23.7 10.7 7.1 7.6 8.0 6.4 4.6 3.5 3.1 3.1 2.5 1.4 0.8 0.7 0.5 0.1
0.0 0.0 0.0 0.0 0.0 0.0 0.0 0.0 0.0 0.0 0.0 0.0 0.0 0.0 0.0 0.0 0.0 15.4 0.0 0.0 0.0 12.1 15.1 25.0 19.2 20.7 0.0 9.2 14.2 3.7 9.9 11.9 14.6 13.3 13.2 7.2 8.0 14.0 21.9 5.8 4.1 3.6 3.9 2.8 1.9 0.9 0.5 0.2 0.0 0.0 0.0 0.0 0.0 0.0
0.0 0.0 0.0 0.0 0.0 0.0 0.0 0.0 0.0 0.0 0.0 0.0 0.0 0.0 0.0 15.2 37.7 2.3 0.0 0.0 0.0 11.8 23.8 8.1 11.5 26.1 6.7 8.7 8.1 7.9 6.7 23.2 5.8 15.5 9.4 8.9 13.7 16.5 9.6 3.5 2.3 1.2 1.8 1.3 0.0 0.0 0.0 0.0 0.0 0.0 0.2 0.2 0.3 0.9
0.0 0.0 0.0 0.0 0.0 0.0 0.0 0.0 0.0 0.0 0.0 0.0 3.4 59.1 100.6 24.8 0.0 0.0 6.9 44.5 42.0 26.2 17.2 11.6 2.3 13.0 4.9 11.4 14.1 15.2 9.2 12.7 15.3 8.2 2.3 14.1 7.8 3.2 2.5 1.4 0.8 0.4 1.1 0.5 0.2 0.1 0.1 0.1 0.3 0.3 0.6 0.9 2.4 2.2
0.0 0.0 0.0 0.0 0.0 0.0 0.0 0.0 0.0 0.0 0.0 18.0 61.1 51.1 3.7 0.0 4.3 30.9 59.3 43.3 27.7 22.3 8.1 5.8 3.7 11.3 2.1 16.4 14.5 9.3 20.1 10.2 13.7 7.7 7.0 9.7 6.2 6.9 1.3 0.6 0.5 0.6 0.0 0.2 0.4 0.5 0.3 0.9 0.9 1.3 2.9 2.9 3.8 4.0
0.0 0.0 0.0 0.0 0.0 0.0 0.0 0.0 0.0 7.8 17.8 0.4 2.5 1.2 10.3 33.6 31.3 36.9 29.6 20.8 9.4 8.4 3.5 3.3 2.9 3.2 3.2 3.9 13.3 11.6 9.2 16.5 20.9 8.0 13.3 9.6 12.1 4.2 0.2 1.2 1.4 0.7 0.9 1.5 1.7 3.9 2.0 2.0 1.7 2.4 2.8 2.6 3.9 3.3
0.0 0.0 0.0 0.0 0.0 0.0 0.0 0.0 0.0 0.0 0.0 5.7 14.3 19.5 20.3 28.6 25.2 17.5 15.2 11.2 9.0 4.2 3.0 1.2 6.4 3.5 4.9 4.5 16.1 12.2 18.8 17.2 9.9 17.2 9.7 9.0 6.7 3.5 1.8 1.7 2.2 2.5 3.2 4.3 4.2 3.3 3.9 2.8 2.9 1.8 3.6 6.0 7.7 9.6
0.0 0.0 0.0 0.0 0.0 0.0 0.0 0.0 0.0 0.0 8.6 22.1 19.9 19.9 10.3 12.3 10.2 9.0 9.2 8.2 5.5 3.0 3.5 3.0 4.4 11.7 9.1 11.4 15.1 19.3 16.6 13.0 14.2 11.0 8.7 8.3 6.1 6.8 5.4 4.5 2.9 3.1 3.5 2.5 3.4 3.9 6.8 7.0 8.6 9.9 10.2 12.8 13.1 12.7
0.0 0.0 0.0 0.0 0.0 0.0 0.0 0.0 0.0 0.0 13.6 17.1 9.7 7.3 7.9 8.7 6.3 6.7 5.9 4.9 3.9 4.5 4.6 6.0 7.2 10.1 12.5 14.9 13.8 11.1 11.2 8.9 7.4 14.4 13.1 10.7 7.8 7.1 6.4 6.3 6.1 6.3 6.5 6.7 7.9 8.5 10.9 11.8 10.1 11.6 11.6 11.4 12.1 11.6
0.0 0.0 0.0 0.0 0.0 0.0 0.0 0.0 1.8 5.1 11.0 8.0 9.5 10.7 7.5 7.7 9.2 7.7 5.7 6.4 4.6 6.3 7.7 9.5 15.3 17.3 16.2 11.8 6.8 7.0 4.9 8.3 14.7 11.0 9.4 8.8 8.5 9.2 9.5 8.5 8.7 8.3 7.9 8.0 8.4 8.0 8.1 8.8 9.6 11.2 9.4 8.8 11.4 12.7
0.0 10.2 0.0 0.0 0.0 0.0 0.0 14.1 15.5 15.5 9.5 6.5 12.1 13.7 10.7 8.8 14.7 12.2 9.5 8.4 5.2 5.3 11.4 11.2 10.7 12.1 9.1 9.7 7.1 5.8 9.2 10.9 9.2 9.1 8.9 8.6 8.6 9.8 10.2 10.0 9.7 7.2 6.5 6.7 6.7 6.6 6.7 7.2 6.4 5.4 6.0 8.7 8.4 9.1
6.5 0.0 0.0 0.0 0.0 0.3 15.8 10.0 10.3 8.2 7.2 10.9 13.7 14.0 7.9 9.5 10.4 9.3 8.3 4.8 2.5 5.0 5.0 9.6 5.6 7.2 11.6 9.9 9.7 11.4 11.6 11.1 10.4 9.6 9.4 8.9 8.6 8.5 7.9 7.6 7.7 6.7 6.2 5.6 4.6 4.3 4.0 3.5 2.7 3.4 3.4 4.2 4.2 5.6
0.4 0.0 0.0 0.0 0.0 8.8 15.0 10.8 3.1 7.7 12.4 9.6 11.2 5.8 4.5 6.7 6.5 4.9 4.9 2.7 1.3 1.9 3.2 8.7 8.2 7.9 9.5 10.3 10.0 9.4 9.3 8.2 9.2 8.5 7.6 7.4 6.7 6.8 6.2 5.7 6.5 6.8 5.8 4.7 3.0 2.4 2.1 1.6 1.6 1.6 1.6 1.3 2.1 2.5
0.1 0.1 0.0 0.1 0.6 7.3 5.9 7.4 0.4 7.4 11.7 10.4 4.9 3.2 2.7 4.9 2.9 2.3 2.0 3.7 4.1 5.5 9.9 7.7 11.9 11.8 10.5 8.5 6.9 6.9 6.9 6.1 5.0 3.9 5.7 6.4 6.1 4.4 5.2 4.3 4.2 4.1 4.3 3.1 2.3 1.6 1.4 1.3 1.5 1.4 1.3 1.3 1.5 1.5
1.4 0.2 0.7 1.1 7.0 7.7 5.0 5.5 3.1 2.9 4.9 3.2 6.4 5.2 6.6 3.9 8.2 9.4 8.5 5.1 12.1 10.2 9.4 8.8 9.6 9.5 6.8 5.8 4.3 3.7 4.4 3.8 3.9 2.8 3.2 4.9 4.8 3.6 3.7 3.9 2.8 2.6 2.4 3.0 2.6 2.6 1.9 2.0 1.7 1.3 1.0 1.1 1.3 1.2
14.3 1.4 9.4 4.5 6.2 7.4 3.7 0.5 4.3 4.2 6.2 7.2 6.6 7.2 10.1 11.0 10.7 11.4 7.1 7.7 12.8 10.9 8.7 6.1 5.1 4.3 3.5 3.1 2.7 1.8 2.7 2.0 2.7 3.6 4.3 3.9 4.8 4.5 4.7 4.4 3.7 3.2 3.0 3.1 2.6 2.5 2.1 1.6 0.8 0.6 0.6 1.1 0.9 0.8
2.6 5.0 10.0 7.1 9.7 8.1 6.0 5.7 6.8 5.1 7.5 7.1 6.0 7.3 8.4 8.5 10.4 6.8 9.9 9.2 13.2 11.7 7.7 3.9 2.7 1.8 2.0 2.6 1.5 1.3 1.4 1.2 1.7 2.4 3.2 3.2 3.2 3.0 2.7 2.8 2.9 2.5 2.4 2.2 1.3 0.9 0.7 0.4 0.3 0.3 0.6 0.8 1.1 1.7
5.1 10.2 8.5 5.3 4.5 6.6 4.1 3.6 2.6 2.9 3.1 4.1 5.5 6.3 5.8 6.6 8.3 10.5 10.6 11.1 15.0 8.9 5.1 5.5 3.8 3.4 3.7 3.0 3.2 3.3 3.7 3.0 3.0 3.1 3.5 3.1 3.2 3.1 1.7 1.4 1.1 0.8 0.7 0.2 0.2 0.3 0.4 0.9 0.8 1.1 0.9 1.2 1.3 1.2
10.5 11.5 9.2 5.0 2.7 2.4 1.4 1.7 2.5 2.6 2.7 1.3 2.1 3.3 4.8 5.2 8.5 7.4 7.4 14.2 15.8 12.5 9.8 6.5 6.2 6.1 5.9 6.6 6.7 6.3 3.7 2.3 2.1 2.5 3.3 1.8 2.2 1.5 2.3 1.8 1.5 1.3 0.7 1.0 1.4 0.9 1.0 1.0 1.4 1.6 2.0 1.8 1.6 2.0
8.9 3.1 3.1 3.4 2.5 2.8 2.0 1.7 1.7 1.4 1.3 1.8 3.5 2.0 2.8 6.5 7.0 9.1 11.3 15.9 13.0 11.6 10.0 8.4 7.3 5.7 6.1 4.7 6.3 5.4 4.8 1.4 0.7 1.6 2.7 1.6 1.6 2.2 2.6 3.0 3.7 3.9 2.6 1.5 1.6 1.8 2.4 2.2 2.6 3.1 3.3 2.3 2.5 1.9
6.1 4.9 2.5 1.9 3.6 4.5 6.0 5.4 4.8 4.7 4.9 5.6 3.9 4.1 6.1 9.5 9.1 12.3 11.6 11.0 10.7 10.3 8.2 5.8 3.8 4.8 4.7 4.3 4.0 3.5 2.0 2.3 3.2 4.0 3.9 3.9 3.6 2.6 2.8 3.8 4.5 4.5 2.1 2.0 3.3 3.8 3.8 4.6 4.4 4.0 4.1 4.1 2.7 2.0
4.2 2.5 3.8 3.2 4.0 5.6 6.3 5.0 6.1 8.2 7.3 5.3 4.4 5.8 6.4 7.6 10.8 11.1 10.1 11.3 9.9 6.6 7.4 7.9 6.4 4.9 6.7 7.8 6.8 6.3 7.3 6.7 6.7 4.7 3.7 5.3 3.9 2.9 2.2 3.1 3.1 3.4 2.2 2.4 3.3 4.5 6.2 5.6 6.6 5.0 4.8 5.3 4.9 4.4
3.1 1.3 1.9 2.1 1.4 5.0 5.4 5.3 6.6 5.8 3.8 4.7 7.2 7.7 6.3 6.1 10.9 10.3 10.7 8.9 8.5 6.4 7.8 8.3 11.9 8.2 7.3 9.9 11.0 10.3 10.1 9.7 7.6 6.7 5.0 5.6 5.0 4.2 2.2 1.8 3.4 3.2 2.5 2.9 3.5 3.9 4.7 5.1 5.1 5.1 4.8 6.0 4.7 5.2
0.9 0.4 1.0 0.3 0.6 4.4 7.2 4.5 4.9 4.5 2.8 4.1 3.9 3.3 4.1 10.0 15.7 10.0 7.6 6.4 7.0 7.9 8.4 7.6 8.2 6.5 8.1 7.7 11.1 11.2 10.8 12.4 12.4 9.9 7.5 5.5 4.4 2.8 2.4 2.3 2.2 2.6 1.6 2.7 3.0 4.4 4.8 6.3 7.2 7.7 7.5 7.8 8.7 8.8
1.4 1.7 1.5 0.8 2.3 5.0 3.6 1.8 2.5 3.5 4.7 6.5 5.3 2.7 4.3 8.9 9.4 7.1 6.5 7.6 5.9 4.5 3.9 5.1 6.0 6.1 6.9 8.0 8.9 8.7 10.8 12.5 14.1 13.2 12.2 9.8 7.1 5.5 4.0 3.4 3.0 3.0 4.4 4.7 4.3 3.8 4.9 5.9 6.1 6.5 6.5 6.2 6.2 5.5
2.5 3.0 2.6 2.2 4.7 3.9 2.0 2.4 4.1 5.9 7.1 7.8 9.2 7.9 7.6 4.8 4.2 5.9 6.6 6.2 4.8 4.4 4.5 4.0 5.1 7.4 7.0 8.5 9.0 9.4 9.5 10.6 11.5 12.1 14.2 12.2 9.8 7.8 5.9 4.9 4.5 4.7 6.4 5.8 5.0 5.3 5.3 5.3 5.7 5.9 6.3 6.2 6.0 6.8
3.1 1.6 1.9 2.0 2.6 1.9 1.7 2.1 4.3 5.6 6.0 6.7 8.7 7.6 5.9 3.6 5.1 7.1 5.5 4.7 6.0 5.3 5.0 5.0 4.8 5.9 6.5 5.8 5.6 5.9 6.0 6.9 7.6 7.9 9.7 10.1 9.9 9.2 8.2 6.9 5.9 5.8 5.9 6.2 5.3 5.0 5.4 5.0 5.4 5.1 5.9 5.6 5.1 5.6

GFSWCAN_prec_snow_291.txt.gz
Snowfall_Accumulation
0.0 0.0 0.0 0.0 0.0 0.0 0.0 0.0 0.0 0.0 0.0 0.0 0.0 0.0 0.0 0.0 0.0 0.0 0.0 0.0 6.8 42.2 4.7 0.0 0.0 0.4 3.0 2.9 11.6 6.6 16.1 11.2 18.5 19.8 19.0 15.3 16.5 10.6 8.1 3.0 2.9 5.2 18.3 19.0 17.9 23.9 10.3 0.0 1.0 4.8 3.0 5.5 7.3 8.5
0.0 0.0 0.0 0.0 0.0 0.0 0.0 0.0 0.0 0.0 0.0 0.0 0.0 0.0 0.0 0.0 0.0 0.0 8.9 0.0 0.0 17.6 10.1 0.0 0.0 0.0 0.0 0.0 2.0 5.0 10.2 12.4 14.5 18.9 14.5 10.7 10.4 7.2 9.0 11.3 1.7 6.8 6.2 12.8 12.9 10.0 2.4 0.8 1.3 1.8 1.3 4.4 6.7 6.8
0.0 0.0 0.0 0.0 0.0 0.0 0.0 0.0 0.0 0.0 0.0 0.0 0.0 0.0 0.0 0.0 0.0 0.0 7.2 0.0 2.8 32.8 10.6 0.8 0.2 0.0 0.0 0.0 0.0 10.1 3.1 4.2 6.2 2.7 14.5 12.7 12.8 2.0 8.7 6.2 6.3 5.8 2.5 6.0 5.9 5.6 1.8 1.1 1.1 2.1 3.1 5.3 5.0 4.7
0.0 0.0 0.0 0.0 0.0 0.0 0.0 0.0 0.0 0.0 0.0 0.0 0.0 0.0 0.0 0.0 0.0 0.0 7.0 0.0 0.7 11.5 35.0 12.6 0.0 0.0 0.0 0.0 0.0 0.0 0.0 1.0 4.1 3.7 20.8 17.5 15.5 3.4 9.9 7.2 6.9 10.0 5.2 4.9 10.3 13.9 2.1 3.5 5.6 4.5 4.7 4.5 3.9 4.1
0.0 0.0 0.0 0.0 0.0 0.0 0.0 0.0 0.0 0.0 0.0 0.0 0.0 0.0 0.0 0.0 0.0 0.0 0.0 0.0 0.0 6.5 25.0 15.5 0.0 0.0 0.0 0.0 0.0 0.0 0.0 1.8 12.0 21.9 23.8 13.8 4.0 12.1 11.9 7.2 5.0 6.4 8.2 10.3 11.3 8.2 9.3 7.0 5.9 4.8 3.5 3.2 2.5 1.5
0.0 0.0 0.0 0.0 0.0 0.0 0.0 0.0 0.0 0.0 0.0 0.0 0.0 0.0 0.0 0.0 0.0 0.0 70.7 8.2 0.0 0.0 28.2 24.3 4.2 1.5 0.0 0.0 0.0 0.0 0.0 0.7 8.4 21.0 15.1 4.9 0.0 8.2 23.2 9.9 5.3 7.3 9.9 8.5 8.1 8.0 6.4 5.1 3.9 2.8 2.2 2.2 1.5 0.9
0.0 0.0 0.0 0.0 0.0 0.0 0.0 0.0 0.0 0.0 0.0 0.0 0.0 0.0 0.0 0.0 0.0 32.4 25.7 1.4 0.0 0.0 28.9 21.5 12.7 6.8 1.5 0.0 0.0 3.2 2.5 12.9 18.5 23.7 17.1 5.8 2.1 14.0 23.7 10.7 7.1 7.6 8.0 6.4 4.6 3.5 3.1 3.1 2.5 1.4 0.8 0.7 0.5 0.1
0.0 0.0 0.0 0.0 0.0 0.0 0.0 0.0 0.0 0.0 0.0 0.0 0.0 0.0 0.0 0.0 0.0 15.7 0.0 0.0 0.0 13.2 15.5 25.3 19.6 21.0 0.0 9.2 14.6 3.7 9.9 12.0 14.8 13.3 13.3 7.3 8.0 14.0 21.9 5.8 4.1 3.6 3.9 2.8 1.9 0.9 0.5 0.2 0.0 0.0 0.0 0.0 0.0 0.0
0.0 0.0 0.0 0.0 0.0 0.0 0.0 0.0 0.0 0.0 0.0 0.0 0.0 0.0 0.0 15.2 38.1 2.3 0.0 0.0 0.0 12.7 25.1 8.8 11.9 26.7 6.9 8.8 8.7 8.2 6.9 23.7 5.9 15.5 9.4 8.9 13.7 16.5 9.6 3.5 2.3 1.2 1.8 1.3 0.0 0.0 0.0 0.0 0.0 0.0 0.2 0.2 0.3 0.9
0.0 0.0 0.0 0.0 0.0 0.0 0.0 0.0 0.0 0.0 0.0 0.0 3.4 65.3 104.3 25.0 0.0 0.0 6.9 45.0 42.8 26.9 17.7 11.6 2.4 13.6 5.1 12.2 15.1 16.0 9.5 12.8 15.5 8.2 2.3 14.1 7.8 3.2 2.5 1.4 0.8 0.4 1.1 0.5 0.2 0.1 0.1 0.1 0.3 0.3 0.6 0.9 2.4 2.2
0.0 0.0 0.0 0.0 0.0 0.0 0.0 0.0 0.0 0.0 0.0 18.0 66.9 53.7 3.7 0.0 4.3 31.4 59.6 43.6 28.2 22.8 8.2 5.8 3.7 11.3 2.7 17.0 16.0 10.3 20.7 10.4 13.8 7.7 7.0 9.8 6.2 6.9 1.3 0.6 0.5 0.6 0.0 0.2 0.4 0.5 0.3 0.9 0.9 1.3 2.9 2.9 3.8 4.0
0.0 0.0 0.0 0.0 0.0 0.0 0.0 0.0 0.0 7.8 17.8 0.4 2.5 1.2 11.6 34.3 31.7 36.9 29.6 21.1 9.4 8.7 3.5 3.3 2.9 3.2 3.5 3.9 14.6 12.6 9.7 16.7 20.9 8.0 13.3 9.6 12.1 4.2 0.2 1.2 1.4 0.7 0.9 1.5 1.7 3.9 2.0 2.0 1.7 2.4 2.8 2.6 3.9 3.3
0.0 0.0 0.0 0.0 0.0 0.0 0.0 0.0 0.0 0.0 0.0 9.2 20.9 22.4 20.6 29.3 26.1 17.5 15.2 11.2 9.0 4.2 3.0 1.3 7.2 3.5 4.9 4.9 16.6 12.2 19.0 17.2 9.9 17.2 9.7 9.0 6.7 3.5 1.8 1.7 2.2 2.5 3.2 4.3 4.2 3.3 3.9 2.8 2.9 1.8 3.6 6.0 7.7 9.6
0.0 0.0 0.0 0.0 0.0 0.0 0.0 0.0 0.0 0.0 8.6 26.0 24.1 21.1 10.6 12.7 10.2 9.0 9.2 8.2 5.5 3.0 3.5 3.1 5.0 12.5 9.1 11.9 15.1 19.7 16.6 13.0 14.2 11.0 8.7 8.3 6.1 6.8 5.4 4.5 2.9 3.1 3.5 2.5 3.4 3.9 6.8 7.0 8.6 9.9 10.2 12.8 13.1 12.7
0.0 0.0 0.0 0.0 0.0 0.0 0.0 0.0 0.0 0.0 13.6 18.5 10.9 7.6 7.9 8.7 6.3 6.7 5.9 4.9 3.9 4.5 5.0 6.5 7.6 10.4 12.9 15.6 14.0 11.5 11.6 8.9 7.4 14.4 13.1 10.7 7.8 7.1 6.4 6.3 6.1 6.3 6.5 6.7 7.9 8.5 10.9 11.8 10.1 11.6 11.6 11.4 12.1 11.6
0.0 0.0 0.0 0.0 0.0 0.0 0.0 0.0 1.8 5.1 11.0 8.9 9.7 10.9 7.5 7.7 9.3 7.8 5.7 6.4 4.6 7.2 8.3 9.8 16.1 17.9 16.7 12.1 6.9 7.0 5.0 8.3 14.7 11.0 9.4 8.8 8.5 9.2 9.5 8.5 8.7 8.3 7.9 8.0 8.4 8.0 8.1 8.8 9.6 11.2 9.4 8.8 11.4 12.7
0.0 10.2 0.0 0.0 0.0 0.0 0.0 14.1 15.6 15.5 9.9 6.5 12.3 13.9 11.1 9.1 14.7 12.4 9.5 8.4 5.2 5.8 12.2 12.7 12.0 12.4 9.3 9.7 7.1 5.8 9.2 10.9 9.2 9.1 8.9 8.6 8.6 9.8 10.2 10.0 9.7 7.2 6.5 6.7 6.7 6.6 6.7 7.2 6.4 5.4 6.0 8.7 8.4 9.1
6.5 0.0 0.0 0.0 0.0 0.3 15.8 10.0 10.7 8.2 7.2 10.9 13.9 14.0 7.9 9.5 10.4 9.3 8.3 4.8 2.8 5.0 5.5 9.6 5.6 7.2 11.7 9.9 9.7 11.4 11.6 11.1 10.5 9.6 9.4 8.9 8.6 8.5 7.9 7.6 7.7 6.7 6.2 5.6 4.6 4.3 4.0 3.5 2.7 3.4 3.4 4.2 4.2 5.6
0.4 0.0 0.0 0.0 0.0 8.8 15.0 10.8 3.1 7.7 12.5 9.6 11.2 5.8 4.5 6.7 6.5 4.9 4.9 2.7 1.3 1.9 3.5 9.4 8.6 7.9 9.5 10.3 10.0 9.4 9.3 8.2 9.3 8.5 7.6 7.4 6.7 6.9 6.2 5.7 6.5 6.8 5.8 4.7 3.0 2.4 2.1 1.6 1.6 1.6 1.6 1.3 2.1 2.5
0.1 0.1 0.0 0.1 0.6 7.8 6.2 7.4 0.4 7.4 11.8 10.4 4.9 3.3 2.8 5.0 3.0 2.4 2.2 3.8 4.3 5.8 10.2 7.9 11.9 11.8 10.6 8.5 6.9 7.0 6.9 6.1 5.0 3.9 5.8 6.4 6.1 4.4 5.2 4.4 4.2 4.1 4.3 3.1 2.3 1.6 1.4 1.3 1.5 1.4 1.3 1.3 1.5 1.5
1.4 0.2 0.7 1.1 7.0 7.7 5.0 5.5 3.1 3.0 5.0 3.3 6.4 5.3 6.8 4.1 8.4 9.6 8.8 5.5 12.5 10.4 9.4 8.8 9.7 9.6 6.8 5.8 4.3 3.7 4.4 3.9 3.9 2.8 3.3 4.9 4.8 3.6 3.7 3.9 2.8 2.6 2.7 3.0 3.1 2.6 1.9 2.0 1.7 1.3 1.0 1.1 1.3 1.2
14.3 1.4 9.4 4.5 6.2 7.5 3.7 0.5 4.3 4.6 6.4 7.2 6.6 7.3 10.2 11.2 10.9 11.7 7.1 8.5 13.0 11.1 8.9 6.3 5.1 4.6 3.7 3.1 2.7 1.8 2.7 2.0 2.8 3.6 4.3 3.9 5.2 5.6 6.8 6.7 5.5 4.3 3.5 5.0 4.9 4.3 2.1 1.6 0.8 0.6 0.6 1.1 0.9 0.8
2.6 5.0 10.1 7.3 10.0 8.1 6.0 5.8 7.2 5.3 7.9 7.4 6.3 7.6 8.6 8.7 10.4 6.8 10.6 9.5 13.2 11.8 7.8 3.9 2.7 1.8 2.0 2.6 1.5 1.3 1.4 1.2 1.7 2.4 3.2 3.2 4.2 4.3 4.9 5.8 5.9 4.9 3.9 3.4 2.7 1.8 1.2 0.7 1.0 2.0 0.6 0.8 1.1 1.7
5.1 10.2 8.5 5.4 4.7 6.7 4.3 4.0 2.9 3.3 3.6 4.7 6.3 7.9 7.5 7.9 8.5 10.6 10.6 11.2 15.0 8.9 5.2 5.7 3.9 3.4 3.7 3.0 3.2 3.3 3.7 3.0 3.0 3.1 4.7 5.9 5.3 4.2 2.5 2.1 1.6 1.3 1.0 0.4 0.3 0.3 0.4 0.9 0.8 1.1 0.9 1.2 1.3 1.2
10.6 11.6 9.2 5.0 2.7 2.5 1.5 1.9 2.7 2.7 2.7 1.4 2.3 3.9 5.2 5.2 8.9 7.8 8.0 14.7 15.9 12.5 9.8 6.5 6.2 6.1 5.9 6.6 6.7 6.7 4.2 2.9 3.1 4.4 5.0 3.0 3.0 2.0 2.4 2.0 1.7 1.5 0.8 1.0 1.6 1.0 1.1 1.1 1.5 1.7 2.0 1.9 1.6 2.1
9.0 3.1 3.1 3.4 2.6 2.8 2.1 1.7 1.7 1.4 1.3 1.9 3.6 2.0 2.8 6.8 7.4 9.9 11.7 16.1 13.3 11.7 10.2 8.9 8.4 6.9 7.0 5.4 6.9 5.8 5.1 1.6 0.9 1.6 3.1 2.0 2.0 2.5 2.9 3.3 3.7 4.0 2.8 1.6 1.7 2.0 2.7 2.5 2.9 3.3 3.7 2.8 2.8 2.0
6.2 5.0 2.5 1.9 3.6 4.5 6.0 5.4 4.8 4.7 4.9 5.6 4.0 4.2 6.2 9.6 9.3 12.4 11.6 11.0 10.8 10.5 8.3 6.1 3.9 4.8 4.7 4.3 4.0 3.6 2.0 2.3 3.2 4.2 4.1 4.0 3.7 2.7 2.9 3.9 4.9 5.3 2.6 2.2 3.4 4.0 4.0 4.9 4.8 4.4 4.6 4.9 3.4 2.5
4.2 2.5 3.8 3.2 4.0 5.6 6.4 5.0 6.2 8.2 7.3 5.3 4.4 5.8 6.4 7.6 11.1 11.1 10.2 11.3 9.9 6.6 7.4 7.9 6.4 4.9 6.7 7.8 6.8 6.3 7.3 6.7 6.7 4.7 3.7 5.4 4.0 2.9 2.4 3.3 3.4 3.5 2.2 2.5 3.5 4.7 6.3 5.8 6.9 5.1 5.1 6.1 6.2 5.5
3.1 1.3 1.9 2.2 1.5 5.1 5.5 5.3 6.6 5.8 3.8 4.7 7.2 7.7 6.3 6.1 10.9 10.3 10.7 8.9 8.5 6.5 8.0 8.5 12.1 8.3 7.4 10.0 11.2 10.5 10.1 9.8 7.8 6.7 5.0 5.7 5.1 4.6 2.4 2.0 3.4 3.2 2.6 3.0 3.7 4.1 4.8 5.3 5.5 5.6 5.1 6.5 5.4 6.0
0.9 0.5 1.1 0.3 0.6 4.4 7.2 4.5 5.0 4.5 2.8 4.1 3.9 3.3 4.1 10.0 15.7 10.0 7.6 6.4 7.0 8.0 8.6 7.7 8.3 6.6 8.2 7.8 11.4 11.5 11.1 12.6 12.4 9.9 7.5 5.6 4.6 3.0 2.5 2.3 2.2 2.6 1.6 2.7 3.0 4.4 4.8 6.3 7.2 7.7 7.7 8.0 8.9 8.9
1.4 1.7 1.6 1.0 2.5 5.2 3.6 1.8 2.5 3.5 4.7 6.5 5.3 2.8 4.4 8.9 9.4 7.1 6.5 7.6 5.9 4.5 4.0 5.2 6.1 6.2 7.0 8.0 8.9 8.7 10.8 12.6 14.1 13.2 12.2 9.8 7.1 5.5 4.0 3.4 3.0 3.0 4.4 4.7 4.3 3.8 4.9 5.9 6.2 6.6 6.5 6.2 6.2 5.5
2.5 3.2 2.7 2.3 5.0 3.9 2.0 2.4 4.1 5.9 7.1 7.8 9.2 7.9 7.6 4.9 4.2 5.9 6.6 6.2 4.8 4.5 4.5 4.2 5.2 7.7 7.2 8.5 9.0 9.4 9.5 10.6 11.5 12.1 14.2 12.2 9.8 7.8 5.9 4.9 4.5 4.7 6.4 5.8 5.0 5.3 5.3 5.3 5.7 5.9 6.3 6.2 6.0 6.8
3.2 1.6 2.0 2.0 2.7 1.9 1.7 2.1 4.3 5.6 6.1 6.7 8.7 7.6 5.9 3.6 5.2 7.1 5.5 4.7 6.2 5.3 5.0 5.1 4.8 5.9 6.5 5.8 5.6 5.9 6.0 6.9 7.6 7.9 9.7 10.1 9.9 9.2 8.2 6.9 5.9 5.8 5.9 6.2 5.3 5.0 5.4 5.0 5.4 5.1 6.0 5.6 5.1 5.7